DL9MFL-6 Weather Reports


time (UTC)temp
F
wind
direction
speed
knots
gust
knots
rain 1hr
in
rain 24hr
in
rain mn
in
humidity
%
barometer
mb
20260903072300 63 286 3.5 7.0 0.00 0.00 0.00 77 1021.2
20260903072200 63 277 3.5 7.0 0.00 0.00 0.00 78 1021.2
20260903072101 62 250 3.5 7.0 0.00 0.00 0.00 79 1021.2
20260903072001 62 279 3.5 7.0 0.00 0.00 0.00 78 1021.2
20260903071901 62 263 3.5 7.0 0.00 0.00 0.00 79 1021.2
20260903071801 62 254 3.5 7.0 0.00 0.00 0.00 79 1021.2
20260903071701 62 271 3.5 7.0 0.00 0.00 0.00 80 1021.2
20260903071601 62 227 3.5 7.0 0.00 0.00 0.00 80 1021.2
20260903071501 62 279 3.5 7.0 0.00 0.00 0.00 80 1021.2
20260903071401 61 216 3.5 7.0 0.00 0.00 0.00 80 1021.2
20260903071300 61 270 3.5 7.0 0.00 0.00 0.00 81 1021.2
20260903071201 61 212 3.5 7.0 0.00 0.00 0.00 81 1021.2
20260903071101 61 211 3.5 7.0 0.00 0.00 0.00 82 1021.2
20260903071020 61 221 3.5 7.0 0.00 0.00 0.00 82 1021.2
20260903071016 61 255 2.6 7.0 0.00 0.00 0.00 82 1021.3
20260903071012 60 271 2.6 7.0 0.00 0.00 0.00 83 1021.2
20260903070755 59 318 1.7 5.2 0.00 0.00 0.00 86 1021.5
20260903070740 60 225 2.6 7.0 0.00 0.00 0.00 83 1021.3
20260903070736 60 238 2.6 7.0 0.00 0.00 0.00 83 1021.3
20260903070521 60 227 1.7 7.0 0.00 0.00 0.00 84 1021.3
20260903070517 60 313 1.7 5.2 0.00 0.00 0.00 85 1021.3
20260903070513 59 318 1.7 5.2 0.00 0.00 0.00 86 1021.5
20260903070205 59 323 1.7 3.5 0.00 0.00 0.00 86 1021.3
20260903070001 59 329 1.7 3.5 0.00 0.00 0.00 86 1021.3
20260903065900 59 329 1.7 3.5 0.00 0.00 0.00 87 1021.5
20260903065800 59 329 1.7 3.5 0.00 0.00 0.00 87 1021.5
20260903065700 58 0 1.7 3.5 0.00 0.00 0.00 87 1021.5
20260903065600 58 5 1.7 3.5 0.00 0.00 0.00 87 1021.6
20260903065500 58 5 1.7 3.5 0.00 0.00 0.00 87 1021.6
20260903065401 58 5 1.7 3.5 0.00 0.00 0.00 87 1021.6
20260903065301 58 5 1.7 3.5 0.00 0.00 0.00 88 1021.6
20260903065200 58 5 1.7 3.5 0.00 0.00 0.00 88 1021.6
20260903065101 58 5 0.9 3.5 0.00 0.00 0.00 88 1021.6
20260903065002 58 9 0.9 2.6 0.00 0.00 0.00 88 1021.6
20260903064901 58 11 0.9 2.6 0.00 0.00 0.00 88 1021.6
20260903064800 58 11 0.9 2.6 0.00 0.00 0.00 89 1021.6
20260903064701 58 11 0.9 2.6 0.00 0.00 0.00 89 1021.6
20260903064601 57 11 0.9 2.6 0.00 0.00 0.00 89 1021.6
20260903064521 57 11 0.9 2.6 0.00 0.00 0.00 89 1021.6
20260903064517 57 11 0.0 2.6 0.00 0.00 0.00 89 1021.6
20260903064513 57 11 0.0 2.6 0.00 0.00 0.00 89 1021.6
20260903064201 57 10 0.0 2.6 0.00 0.00 0.00 90 1021.6
20260903064101 57 10 0.0 1.7 0.00 0.00 0.00 90 1021.6
20260903064001 57 10 0.0 0.9 0.00 0.00 0.00 90 1021.6
20260903063901 57 10 0.0 0.9 0.00 0.00 0.00 89 1021.6
20260903063801 57 10 0.0 0.9 0.00 0.00 0.00 90 1021.6
20260903063700 57 10 0.0 0.9 0.00 0.00 0.00 90 1021.6
20260903063602 57 10 0.0 0.9 0.00 0.00 0.00 91 1021.5
20260903063501 57 10 0.0 1.7 0.00 0.00 0.00 91 1021.5
20260903063400 57 10 0.0 1.7 0.00 0.00 0.00 91 1021.5
20260903063300 57 10 0.0 1.7 0.00 0.00 0.00 91 1021.5
20260903063252 56 10 0.0 1.7 0.00 0.00 0.00 91 1021.3
20260903063247 56 10 0.0 1.7 0.00 0.00 0.00 91 1021.3
20260903063239 56 10 0.0 1.7 0.00 0.00 0.00 91 1021.5
20260903063021 56 10 0.0 1.7 0.00 0.00 0.00 91 1021.3
20260903063017 56 10 0.0 1.7 0.00 0.00 0.00 91 1021.3
20260903063011 56 10 0.0 1.7 0.00 0.00 0.00 91 1021.3
20260903062700 56 10 0.0 1.7 0.00 0.00 0.00 91 1021.3
20260903062600 56 10 0.0 1.7 0.00 0.00 0.00 91 1021.5
20260903062521 56 11 0.0 0.9 0.00 0.00 0.00 91 1021.3
20260903062516 56 11 0.0 0.9 0.00 0.00 0.00 91 1021.3
20260903062513 56 11 0.0 0.9 0.00 0.00 0.00 91 1021.3
20260903062201 56 11 0.0 0.9 0.00 0.00 0.00 91 1021.2
20260903062100 56 11 0.0 0.9 0.00 0.00 0.00 91 1021.3
20260903062000 56 11 0.0 0.9 0.00 0.00 0.00 91 1021.2
20260903061902 56 11 0.0 0.9 0.00 0.00 0.00 91 1021.3
20260903061801 56 11 0.0 0.9 0.00 0.00 0.00 91 1021.2
20260903061701 56 11 0.0 0.9 0.00 0.00 0.00 91 1021.2
20260903061601 56 11 0.0 0.9 0.00 0.00 0.00 91 1021.2
20260903061501 56 11 0.0 0.9 0.00 0.00 0.00 91 1021.1
20260903061401 56 11 0.0 0.9 0.00 0.00 0.00 91 1021.1
20260903061301 56 11 0.0 0.9 0.00 0.00 0.00 91 1021.1
20260903061201 56 11 0.0 0.9 0.00 0.00 0.00 91 1021.1
20260903061104 56 11 0.0 0.9 0.00 0.00 0.00 91 1021.1
20260903061001 56 11 0.0 0.9 0.00 0.00 0.00 91 1021.1
20260903060901 56 11 0.0 0.9 0.00 0.00 0.00 91 1021.1
20260903060802 56 11 0.0 0.9 0.00 0.00 0.00 91 1021.1
20260903060701 56 11 0.0 0.9 0.00 0.00 0.00 91 1021.0
20260903060601 56 11 0.0 0.9 0.00 0.00 0.00 91 1021.1
20260903060501 56 11 0.0 0.9 0.00 0.00 0.00 91 1021.0
20260903060401 55 10 0.0 0.9 0.00 0.00 0.00 91 1021.0
20260903060301 55 10 0.0 0.9 0.00 0.00 0.00 91 1021.0
20260903060201 55 11 0.0 0.9 0.00 0.00 0.00 91 1021.0
20260903060100 55 11 0.0 0.9 0.00 0.00 0.00 91 1021.0
20260903060019 55 11 0.0 0.9 0.00 0.00 0.00 91 1021.1
20260903060015 55 11 0.0 0.9 0.00 0.00 0.00 91 1021.0
20260903060011 55 11 0.0 0.9 0.00 0.00 0.00 91 1021.0
20260903055755 55 11 0.9 1.7 0.00 0.00 0.00 91 1021.0
20260903055747 55 11 0.0 0.9 0.00 0.00 0.00 91 1021.0
20260903055743 55 11 0.0 0.9 0.00 0.00 0.00 91 1021.0
20260903055520 55 11 0.0 1.7 0.00 0.00 0.00 91 1021.0
20260903055516 55 11 0.0 1.7 0.00 0.00 0.00 91 1021.0
20260903055512 55 11 0.9 1.7 0.00 0.00 0.00 91 1021.0
20260903055201 55 11 0.9 2.6 0.00 0.00 0.00 91 1021.0
20260903055101 55 11 0.9 2.6 0.00 0.00 0.00 90 1021.0
20260903055021 55 11 0.9 2.6 0.00 0.00 0.00 91 1021.0
20260903055017 55 11 0.9 2.6 0.00 0.00 0.00 90 1021.0
20260903055013 55 11 0.9 2.6 0.00 0.00 0.00 91 1021.0
20260903054700 55 11 0.9 2.6 0.00 0.00 0.00 91 1021.0
20260903054601 55 11 0.0 2.6 0.00 0.00 0.00 91 1021.0
20260903054500 55 11 0.0 2.6 0.00 0.00 0.00 91 1021.0
20260903054400 55 11 0.0 2.6 0.00 0.00 0.00 91 1021.0
20260903054301 55 11 0.0 2.6 0.00 0.00 0.00 91 1021.0
20260903054201 55 9 0.0 0.0 0.00 0.00 0.00 91 1020.9
20260903054101 55 9 0.0 0.0 0.00 0.00 0.00 91 1020.9
20260903054000 55 9 0.0 0.0 0.00 0.00 0.00 91 1021.0
20260903053900 55 9 0.0 0.0 0.00 0.00 0.00 91 1020.9
20260903053801 55 9 0.0 0.0 0.00 0.00 0.00 91 1020.9
20260903053701 55 9 0.0 0.0 0.00 0.00 0.00 91 1020.9
20260903053601 55 9 0.0 0.0 0.00 0.00 0.00 91 1020.9
20260903053520 54 9 0.0 0.0 0.00 0.00 0.00 91 1020.9
20260903053516 54 9 0.0 0.0 0.00 0.00 0.00 91 1020.9
20260903053512 54 9 0.0 0.0 0.00 0.00 0.00 91 1020.9
20260903053200 54 9 0.0 0.9 0.00 0.00 0.00 91 1020.9
20260903053100 54 9 0.0 0.9 0.00 0.00 0.00 91 1020.9
20260903053000 54 9 0.0 0.9 0.00 0.00 0.00 91 1020.9
20260903052900 54 9 0.0 0.9 0.00 0.00 0.00 91 1020.8
20260903052801 54 9 0.0 0.9 0.00 0.00 0.00 91 1020.8
20260903052701 54 9 0.0 0.9 0.00 0.00 0.00 91 1020.8
20260903052601 54 9 0.0 0.9 0.00 0.00 0.00 91 1020.8
20260903052501 54 9 0.0 0.9 0.00 0.00 0.00 91 1020.9
20260903052400 54 9 0.0 0.9 0.00 0.00 0.00 91 1020.8
20260903052301 54 9 0.0 0.9 0.00 0.00 0.00 91 1020.9
20260903052201 54 9 0.0 0.9 0.00 0.00 0.00 91 1020.8
20260903052101 54 9 0.0 0.9 0.00 0.00 0.00 91 1020.9
20260903052005 54 9 0.0 0.9 0.00 0.00 0.00 91 1020.9
20260903051900 54 9 0.0 0.9 0.00 0.00 0.00 91 1020.9
20260903051801 54 9 0.0 0.9 0.00 0.00 0.00 91 1020.8
20260903051701 54 9 0.0 0.9 0.00 0.00 0.00 91 1020.9
20260903051601 54 9 0.0 0.9 0.00 0.00 0.00 91 1020.8
20260903051501 54 9 0.0 0.9 0.00 0.00 0.00 91 1020.9
20260903051401 54 9 0.0 0.9 0.00 0.00 0.00 91 1020.9
20260903051301 54 9 0.0 0.9 0.00 0.00 0.00 91 1020.9
20260903051201 54 9 0.0 0.0 0.00 0.00 0.00 91 1020.8
20260903051101 54 9 0.0 0.0 0.00 0.00 0.00 91 1020.8
20260903051025 54 9 0.0 0.0 0.00 0.00 0.00 91 1020.8
20260903051017 54 9 0.0 0.0 0.00 0.00 0.00 91 1020.8
20260903051013 54 9 0.0 0.0 0.00 0.00 0.00 91 1020.8
20260903050701 54 9 0.0 0.0 0.00 0.00 0.00 91 1020.8
20260903050601 54 9 0.0 0.0 0.00 0.00 0.00 91 1020.8
20260903050501 54 9 0.0 0.0 0.00 0.00 0.00 91 1020.8
20260903050401 54 9 0.0 0.0 0.00 0.00 0.00 91 1020.8
20260903050301 54 9 0.0 0.0 0.00 0.00 0.00 91 1020.8
20260903050201 54 9 0.0 0.0 0.00 0.00 0.00 91 1020.8
20260903050100 54 9 0.0 0.0 0.00 0.00 0.00 91 1020.8
20260903050023 54 9 0.0 0.0 0.00 0.00 0.00 91 1020.8
20260903050015 54 9 0.0 0.0 0.00 0.00 0.00 91 1020.8
20260903050011 54 9 0.0 0.0 0.00 0.00 0.00 91 1020.8
20260903045700 54 9 0.0 0.0 0.00 0.00 0.00 91 1020.9
20260903045600 54 9 0.0 0.0 0.00 0.00 0.00 91 1020.9
20260903045500 54 9 0.0 0.0 0.00 0.00 0.00 91 1020.8
20260903045400 54 9 0.0 0.0 0.00 0.00 0.00 91 1020.9
20260903045301 54 9 0.0 0.0 0.00 0.00 0.00 91 1020.9
20260903045201 54 9 0.0 0.0 0.00 0.00 0.00 90 1020.9
20260903045101 54 9 0.0 0.9 0.00 0.00 0.00 90 1020.9
20260903045001 54 9 0.0 0.9 0.00 0.00 0.00 90 1020.9
20260903044901 54 9 0.0 1.7 0.00 0.00 0.00 90 1020.9
20260903044801 54 9 0.0 1.7 0.00 0.00 0.00 90 1020.9
20260903044702 54 9 0.0 1.7 0.00 0.00 0.00 90 1020.9
20260903044600 54 9 0.0 1.7 0.00 0.00 0.00 90 1020.8
20260903044500 54 9 0.0 1.7 0.00 0.00 0.00 90 1020.8
20260903044401 54 9 0.0 1.7 0.00 0.00 0.00 90 1020.9
20260903044302 54 9 0.0 1.7 0.00 0.00 0.00 90 1020.8
20260903044200 54 9 0.0 1.7 0.00 0.00 0.00 90 1020.7
20260903044101 54 9 0.0 1.7 0.00 0.00 0.00 90 1020.7
20260903044001 54 9 0.0 1.7 0.00 0.00 0.00 90 1020.8
20260903043901 54 9 0.0 1.7 0.00 0.00 0.00 90 1020.7
20260903043801 54 9 0.0 1.7 0.00 0.00 0.00 90 1020.8
20260903043701 54 9 0.0 1.7 0.00 0.00 0.00 90 1020.8
20260903043601 54 9 0.0 1.7 0.00 0.00 0.00 90 1020.8
20260903043500 54 9 0.0 1.7 0.00 0.00 0.00 90 1020.8
20260903043401 54 9 0.0 1.7 0.00 0.00 0.00 90 1020.7
20260903043301 54 9 0.0 1.7 0.00 0.00 0.00 90 1020.7
20260903043200 54 9 0.0 1.7 0.00 0.00 0.00 90 1020.7
20260903043100 54 9 0.0 1.7 0.00 0.00 0.00 90 1020.8
20260903043000 54 9 0.0 1.7 0.00 0.00 0.00 90 1020.7
20260903042905 54 9 0.0 1.7 0.00 0.00 0.00 90 1020.7
20260903042801 54 9 0.0 1.7 0.00 0.00 0.00 90 1020.7
20260903042701 54 9 0.9 1.7 0.00 0.00 0.00 90 1020.7
20260903042600 54 9 0.9 1.7 0.00 0.00 0.00 90 1020.7
20260903042500 54 9 0.9 1.7 0.00 0.00 0.00 90 1020.7
20260903042403 54 9 0.9 1.7 0.00 0.00 0.00 90 1020.7
20260903042301 54 9 0.9 1.7 0.00 0.00 0.00 90 1020.7
20260903042202 54 9 0.9 1.7 0.00 0.00 0.00 90 1020.7
20260903042102 54 9 0.9 1.7 0.00 0.00 0.00 90 1020.7
20260903042000 54 9 0.9 1.7 0.00 0.00 0.00 90 1020.8
20260903041900 54 9 0.9 1.7 0.00 0.00 0.00 90 1020.7
20260903041801 54 9 0.9 1.7 0.00 0.00 0.00 90 1020.7
20260903041701 54 9 0.9 1.7 0.00 0.00 0.00 90 1020.7
20260903041559 54 9 0.9 1.7 0.00 0.00 0.00 90 1020.7
20260903041459 54 5 0.9 1.7 0.00 0.00 0.00 90 1020.7
20260903041359 54 5 0.0 1.7 0.00 0.00 0.00 90 1020.7
20260903041303 54 5 0.0 1.7 0.00 0.00 0.00 90 1020.7
20260903041259 54 5 0.0 1.7 0.00 0.00 0.00 90 1020.7
20260903041158 54 5 0.0 1.7 0.00 0.00 0.00 90 1020.7
20260903041058 54 5 0.0 1.7 0.00 0.00 0.00 90 1020.7
20260903040956 54 5 0.0 1.7 0.00 0.00 0.00 90 1020.7
20260903040857 54 5 0.9 1.7 0.00 0.00 0.00 90 1020.7
20260903040801 54 5 0.9 1.7 0.00 0.00 0.00 90 1020.7
20260903040755 54 5 0.9 1.7 0.00 0.00 0.00 90 1020.7
20260903040653 54 5 0.9 1.7 0.00 0.00 0.00 90 1020.7
20260903040551 54 5 0.9 1.7 0.00 0.00 0.00 90 1020.6
20260903040450 54 5 0.9 1.7 0.00 0.00 0.00 90 1020.7
20260903040354 54 5 0.9 1.7 0.00 0.00 0.00 90 1020.6
20260903040301 54 5 0.9 1.7 0.00 0.00 0.00 90 1020.6
20260903040248 54 5 0.9 1.7 0.00 0.00 0.00 90 1020.6
20260903040149 54 5 0.0 1.7 0.00 0.00 0.00 90 1020.6
20260903040048 54 5 0.0 1.7 0.00 0.00 0.00 90 1020.6
20260903035949 54 5 0.0 1.7 0.00 0.00 0.00 90 1020.6
20260903035851 54 5 0.0 1.7 0.00 0.00 0.00 90 1020.6
20260903035800 54 5 0.0 1.7 0.00 0.00 0.00 90 1020.6
20260903035748 54 5 0.0 1.7 0.00 0.00 0.00 90 1020.6
20260903035648 54 5 0.0 1.7 0.00 0.00 0.00 90 1020.6
20260903035547 54 5 0.9 1.7 0.00 0.00 0.00 90 1020.6
20260903035523 54 5 0.9 1.7 0.00 0.00 0.00 90 1020.5
20260903035520 54 5 0.9 1.7 0.00 0.00 0.00 90 1020.6
20260903035515 54 5 0.9 1.7 0.00 0.00 0.00 90 1020.6
20260903035246 54 5 0.9 1.7 0.00 0.00 0.00 90 1020.5
20260903035146 54 5 0.9 1.7 0.00 0.00 0.00 90 1020.5
20260903035046 54 5 0.9 1.7 0.00 0.00 0.00 90 1020.5
20260903034946 54 5 0.9 1.7 0.00 0.00 0.00 90 1020.5
20260903034847 54 5 0.9 1.7 0.00 0.00 0.00 90 1020.5
20260903034801 54 5 0.9 1.7 0.00 0.00 0.00 90 1020.5
20260903034743 54 5 0.9 1.7 0.00 0.00 0.00 90 1020.5
20260903034643 54 5 0.9 1.7 0.00 0.00 0.00 90 1020.5
20260903034543 54 0 0.9 1.7 0.00 0.00 0.00 90 1020.5
20260903034442 54 0 0.0 1.7 0.00 0.00 0.00 90 1020.5
20260903034344 54 0 0.9 1.7 0.00 0.00 0.00 90 1020.5
20260903034301 54 0 0.9 1.7 0.00 0.00 0.00 90 1020.6
20260903034242 54 0 0.9 1.7 0.00 0.00 0.00 90 1020.6
20260903034142 54 0 0.9 1.7 0.00 0.00 0.00 90 1020.5
20260903034042 54 0 0.9 1.7 0.00 0.00 0.00 90 1020.5
20260903033942 54 0 0.9 1.7 0.00 0.00 0.00 90 1020.5
20260903033843 54 0 0.9 1.7 0.00 0.00 0.00 90 1020.5
20260903033800 54 355 0.9 1.7 0.00 0.00 0.00 90 1020.5
20260903033743 54 355 0.9 1.7 0.00 0.00 0.00 89 1020.5
20260903033643 54 355 0.9 1.7 0.00 0.00 0.00 89 1020.5
20260903033543 54 355 0.9 1.7 0.00 0.00 0.00 89 1020.5
20260903033443 54 355 0.9 1.7 0.00 0.00 0.00 89 1020.5
20260903033342 54 355 0.9 1.7 0.00 0.00 0.00 89 1020.5
20260903033301 54 355 0.0 1.7 0.00 0.00 0.00 89 1020.5
20260903033242 54 355 0.0 1.7 0.00 0.00 0.00 89 1020.5
20260903033142 54 355 0.0 1.7 0.00 0.00 0.00 89 1020.6
20260903033042 54 355 0.0 1.7 0.00 0.00 0.00 89 1020.5
20260903032938 54 355 0.0 1.7 0.00 0.00 0.00 89 1020.6
20260903032839 54 355 0.0 1.7 0.00 0.00 0.00 89 1020.6
20260903032801 54 350 0.0 1.7 0.00 0.00 0.00 89 1020.6
20260903032738 54 350 0.0 1.7 0.00 0.00 0.00 89 1020.6
20260903032639 55 342 0.0 0.9 0.00 0.00 0.00 89 1020.6
20260903032539 55 340 0.0 0.0 0.00 0.00 0.00 89 1020.6
20260903032523 55 336 0.0 0.0 0.00 0.00 0.00 88 1020.7
20260903032519 55 340 0.0 0.0 0.00 0.00 0.00 89 1020.7
20260903032515 55 336 0.0 0.0 0.00 0.00 0.00 89 1020.7
20260903032238 55 336 0.0 0.0 0.00 0.00 0.00 88 1020.7
20260903032138 55 336 0.0 0.0 0.00 0.00 0.00 88 1020.6
20260903032038 55 336 0.0 0.0 0.00 0.00 0.00 88 1020.7
20260903031938 55 336 0.0 0.0 0.00 0.00 0.00 88 1020.7
20260903031839 55 336 0.0 0.0 0.00 0.00 0.00 88 1020.7
20260903031802 55 336 0.0 0.0 0.00 0.00 0.00 88 1020.7
20260903031738 55 336 0.0 0.9 0.00 0.00 0.00 88 1020.7
20260903031638 55 336 0.0 0.9 0.00 0.00 0.00 88 1020.7
20260903031538 55 336 0.0 1.7 0.00 0.00 0.00 88 1020.7
20260903031439 55 336 0.0 1.7 0.00 0.00 0.00 88 1020.7
20260903031339 55 336 0.9 1.7 0.00 0.00 0.00 88 1020.7
20260903031300 55 336 0.9 1.7 0.00 0.00 0.00 88 1020.7
20260903031238 55 336 0.9 1.7 0.00 0.00 0.00 88 1020.7
20260903031139 55 336 0.9 1.7 0.00 0.00 0.00 88 1020.7
20260903031035 55 336 0.9 1.7 0.00 0.00 0.00 88 1020.7
20260903031020 55 336 0.9 1.7 0.00 0.00 0.00 88 1020.7
20260903031016 55 336 0.9 1.7 0.00 0.00 0.00 88 1020.7
20260903030735 55 336 0.9 1.7 0.00 0.00 0.00 88 1020.7
20260903030635 55 336 0.9 1.7 0.00 0.00 0.00 88 1020.7
20260903030535 55 336 0.0 1.7 0.00 0.00 0.00 88 1020.7
20260903030435 55 336 0.0 1.7 0.00 0.00 0.00 88 1020.7
20260903030334 55 336 0.0 1.7 0.00 0.00 0.00 88 1020.7
20260903030301 55 336 0.0 1.7 0.00 0.00 0.00 88 1020.7
20260903030235 55 336 0.0 1.7 0.00 0.00 0.00 88 1020.7
20260903030134 55 336 0.0 0.0 0.00 0.00 0.00 88 1020.7
20260903030034 55 335 0.0 0.0 0.00 0.00 0.00 88 1020.7
20260903030021 55 335 0.0 0.0 0.00 0.00 0.00 88 1020.7
20260903030017 55 335 0.0 0.0 0.00 0.00 0.00 88 1020.7
20260903025734 55 335 0.0 0.0 0.00 0.00 0.00 88 1020.7
20260903025634 55 335 0.0 0.0 0.00 0.00 0.00 88 1020.7
20260903025534 55 335 0.0 0.0 0.00 0.00 0.00 88 1020.7
20260903025434 55 335 0.0 0.0 0.00 0.00 0.00 88 1020.7
20260903025335 55 335 0.0 0.0 0.00 0.00 0.00 88 1020.7
20260903025302 55 335 0.0 0.0 0.00 0.00 0.00 88 1020.7
20260903025234 55 335 0.0 0.0 0.00 0.00 0.00 88 1020.7
20260903025135 55 335 0.0 0.0 0.00 0.00 0.00 88 1020.7
20260903025035 55 335 0.0 0.0 0.00 0.00 0.00 88 1020.6
20260903024935 55 335 0.0 0.0 0.00 0.00 0.00 88 1020.6
20260903024834 55 335 0.0 0.0 0.00 0.00 0.00 88 1020.7
20260903024801 55 335 0.0 0.0 0.00 0.00 0.00 87 1020.6
20260903024735 55 335 0.0 0.0 0.00 0.00 0.00 87 1020.6
20260903024635 55 335 0.0 0.0 0.00 0.00 0.00 87 1020.6
20260903024535 55 335 0.0 0.0 0.00 0.00 0.00 87 1020.6
20260903024430 55 333 0.0 0.0 0.00 0.00 0.00 87 1020.6
20260903024330 55 333 0.0 0.0 0.00 0.00 0.00 87 1020.6
20260903024301 56 333 0.0 0.0 0.00 0.00 0.00 87 1020.7
20260903024231 56 333 0.0 0.0 0.00 0.00 0.00 87 1020.7
20260903024131 56 333 0.0 0.0 0.00 0.00 0.00 87 1020.6
20260903024030 56 333 0.0 0.0 0.00 0.00 0.00 87 1020.7
20260903023930 56 333 0.0 0.0 0.00 0.00 0.00 87 1020.7
20260903023801 56 333 0.0 0.0 0.00 0.00 0.00 87 1020.7
20260903023730 56 333 0.0 0.0 0.00 0.00 0.00 87 1020.7
20260903023630 56 333 0.0 0.0 0.00 0.00 0.00 87 1020.7
20260903023530 56 333 0.0 0.0 0.00 0.00 0.00 87 1020.7
20260903023431 56 333 0.0 0.0 0.00 0.00 0.00 87 1020.7
20260903023304 56 333 0.0 0.0 0.00 0.00 0.00 87 1020.7
20260903023231 56 333 0.0 0.0 0.00 0.00 0.00 87 1020.7
20260903023131 56 333 0.0 0.0 0.00 0.00 0.00 87 1020.7
20260903023030 56 333 0.0 0.0 0.00 0.00 0.00 87 1020.7
20260903022930 56 333 0.0 0.0 0.00 0.00 0.00 87 1020.7
20260903022803 56 333 0.0 0.0 0.00 0.00 0.00 87 1020.7
20260903022730 56 333 0.0 0.0 0.00 0.00 0.00 87 1020.7
20260903022630 56 333 0.0 0.0 0.00 0.00 0.00 87 1020.7
20260903022529 56 333 0.0 0.0 0.00 0.00 0.00 87 1020.7
20260903022430 56 333 0.0 0.0 0.00 0.00 0.00 87 1020.7
20260903022330 56 333 0.0 0.0 0.00 0.00 0.00 87 1020.7
20260903022301 56 333 0.0 0.0 0.00 0.00 0.00 87 1020.8
20260903022229 56 333 0.0 0.0 0.00 0.00 0.00 87 1020.8
20260903022129 56 333 0.0 0.0 0.00 0.00 0.00 87 1020.8
20260903022030 56 333 0.0 0.0 0.00 0.00 0.00 87 1020.8
20260903021930 56 333 0.0 0.0 0.00 0.00 0.00 87 1020.7
20260903021801 56 333 0.0 0.0 0.00 0.00 0.00 87 1020.8
20260903021729 56 333 0.0 0.0 0.00 0.00 0.00 87 1020.8
20260903021629 56 333 0.0 0.0 0.00 0.00 0.00 87 1020.7
20260903021529 56 333 0.0 0.0 0.00 0.00 0.00 87 1020.7
20260903021427 56 333 0.0 0.0 0.00 0.00 0.00 87 1020.7
20260903021322 56 333 0.0 0.0 0.00 0.00 0.00 87 1020.6
20260903021301 56 333 0.0 0.0 0.00 0.00 0.00 87 1020.7
20260903021222 56 333 0.0 0.0 0.00 0.00 0.00 87 1020.7
20260903021122 57 333 0.0 0.0 0.00 0.00 0.00 87 1020.6
20260903021023 57 333 0.0 0.0 0.00 0.00 0.00 87 1020.7
20260903020922 57 333 0.0 0.0 0.00 0.00 0.00 87 1020.6
20260903020801 57 333 0.0 0.0 0.00 0.00 0.00 87 1020.7
20260903020722 57 333 0.0 0.0 0.00 0.00 0.00 87 1020.7
20260903020620 57 333 0.0 0.0 0.00 0.00 0.00 87 1020.7
20260903020518 57 333 0.0 0.0 0.00 0.00 0.00 87 1020.6
20260903020416 57 333 0.0 0.0 0.00 0.00 0.00 87 1020.6
20260903020301 57 333 0.0 0.0 0.00 0.00 0.00 87 1020.6
20260903020215 57 333 0.0 0.0 0.00 0.00 0.00 87 1020.6
20260903020115 57 333 0.0 0.0 0.00 0.00 0.00 87 1020.6
20260903020013 57 333 0.0 0.0 0.00 0.00 0.00 87 1020.7
20260903015909 57 333 0.0 0.0 0.00 0.00 0.00 87 1020.6
20260903015800 57 333 0.0 0.0 0.00 0.00 0.00 87 1020.7
20260903015704 57 333 0.0 0.0 0.00 0.00 0.00 87 1020.6
20260903015601 57 333 0.0 0.0 0.00 0.00 0.00 87 1020.6
20260903015501 57 333 0.0 0.0 0.00 0.00 0.00 87 1020.6
20260903015401 57 333 0.0 0.0 0.00 0.00 0.00 87 1020.6
20260903015301 57 333 0.0 0.0 0.00 0.00 0.00 87 1020.6
20260903015201 57 333 0.0 0.0 0.00 0.00 0.00 87 1020.6
20260903015101 57 333 0.0 0.0 0.00 0.00 0.00 87 1020.6
20260903015001 57 333 0.0 0.0 0.00 0.00 0.00 87 1020.6
20260903014901 57 333 0.0 0.0 0.00 0.00 0.00 87 1020.6
20260903014802 57 333 0.0 0.0 0.00 0.00 0.00 87 1020.6
20260903014701 57 333 0.0 0.0 0.00 0.00 0.00 87 1020.6
20260903014601 57 333 0.0 0.0 0.00 0.00 0.00 87 1020.6
20260903014521 57 333 0.0 0.0 0.00 0.00 0.00 87 1020.6
20260903014517 57 333 0.0 0.0 0.00 0.00 0.00 87 1020.6
20260903014513 57 333 0.0 0.0 0.00 0.00 0.00 87 1020.6
20260903014201 57 329 0.0 0.0 0.00 0.00 0.00 87 1020.6
20260903014101 57 329 0.0 0.0 0.00 0.00 0.00 87 1020.6
20260903014020 57 329 0.0 0.0 0.00 0.00 0.00 87 1020.6
20260903014016 57 329 0.0 0.0 0.00 0.00 0.00 87 1020.6
20260903014012 57 329 0.0 0.0 0.00 0.00 0.00 87 1020.7
20260903013700 57 329 0.0 0.0 0.00 0.00 0.00 87 1020.7
20260903013601 57 326 0.0 0.0 0.00 0.00 0.00 87 1020.7
20260903013501 57 326 0.0 0.0 0.00 0.00 0.00 87 1020.7
20260903013401 57 326 0.0 0.0 0.00 0.00 0.00 87 1020.7
20260903013301 57 326 0.0 0.0 0.00 0.00 0.00 87 1020.7
20260903013201 57 326 0.0 0.0 0.00 0.00 0.00 87 1020.7
20260903013101 57 326 0.0 0.0 0.00 0.00 0.00 87 1020.7
20260903013001 57 326 0.0 0.0 0.00 0.00 0.00 87 1020.7
20260903012901 57 326 0.0 0.0 0.00 0.00 0.00 86 1020.7
20260903012800 57 326 0.0 0.0 0.00 0.00 0.00 86 1020.7
20260903012700 57 326 0.0 0.0 0.00 0.00 0.00 86 1020.7
20260903012601 57 326 0.0 0.0 0.00 0.00 0.00 86 1020.7
20260903012501 57 326 0.0 0.0 0.00 0.00 0.00 86 1020.7
20260903012401 57 326 0.0 0.0 0.00 0.00 0.00 86 1020.7
20260903012301 57 326 0.0 0.0 0.00 0.00 0.00 86 1020.6
20260903012201 57 326 0.0 0.0 0.00 0.00 0.00 86 1020.6
20260903012100 57 326 0.0 0.0 0.00 0.00 0.00 86 1020.6
20260903012001 57 326 0.0 0.0 0.00 0.00 0.00 86 1020.6
20260903011901 57 326 0.0 0.0 0.00 0.00 0.00 86 1020.6
20260903011801 57 326 0.0 0.0 0.00 0.00 0.00 86 1020.6
20260903011706 57 326 0.0 0.0 0.00 0.00 0.00 86 1020.6
20260903011601 57 326 0.0 0.0 0.00 0.00 0.00 86 1020.6
20260903011501 57 326 0.0 0.0 0.00 0.00 0.00 86 1020.6
20260903011401 57 326 0.0 0.0 0.00 0.00 0.00 86 1020.6
20260903011301 57 326 0.0 0.0 0.00 0.00 0.00 86 1020.5
20260903011205 57 326 0.0 0.0 0.00 0.00 0.00 86 1020.5
20260903011101 57 326 0.0 0.0 0.00 0.00 0.00 86 1020.5
20260903011000 57 326 0.0 0.0 0.00 0.00 0.00 86 1020.5
20260903010900 57 326 0.0 0.0 0.00 0.00 0.00 86 1020.5
20260903010800 57 326 0.0 0.0 0.00 0.00 0.00 86 1020.5
20260903010702 57 326 0.0 0.0 0.00 0.00 0.00 86 1020.5
20260903010600 57 326 0.0 0.0 0.00 0.00 0.00 86 1020.5
20260903010500 57 326 0.0 0.0 0.00 0.00 0.00 86 1020.5
20260903010401 57 326 0.0 0.0 0.00 0.00 0.00 86 1020.5
20260903010301 57 326 0.0 0.0 0.00 0.00 0.00 86 1020.5
20260903010200 57 326 0.0 0.0 0.00 0.00 0.00 86 1020.5
20260903010101 57 326 0.0 0.0 0.00 0.00 0.00 86 1020.5
20260903010000 57 325 0.0 0.0 0.00 0.00 0.00 86 1020.5
20260903005900 57 326 0.0 0.0 0.00 0.00 0.00 86 1020.5
20260903005800 57 326 0.0 0.0 0.00 0.00 0.00 86 1020.5
20260903005701 57 325 0.0 0.0 0.00 0.00 0.00 86 1020.5
20260903005601 57 326 0.0 0.0 0.00 0.00 0.00 86 1020.5
20260903005521 57 326 0.0 0.0 0.00 0.00 0.00 86 1020.5
20260903005516 57 326 0.0 0.0 0.00 0.00 0.00 86 1020.6
20260903005512 57 325 0.0 0.0 0.00 0.00 0.00 86 1020.5
20260903005201 57 325 0.0 0.0 0.00 0.00 0.00 86 1020.6
20260903005101 57 325 0.0 0.0 0.00 0.00 0.00 86 1020.6
20260903005019 57 325 0.0 0.0 0.00 0.00 0.00 86 1020.6
20260903005015 57 326 0.0 0.0 0.00 0.00 0.00 85 1020.5
20260903005011 57 325 0.0 0.0 0.00 0.00 0.00 86 1020.5
20260903004701 57 325 0.0 0.0 0.00 0.00 0.00 86 1020.6
20260903004601 57 325 0.0 0.0 0.00 0.00 0.00 85 1020.5
20260903004501 57 325 0.0 0.0 0.00 0.00 0.00 85 1020.6
20260903004400 57 325 0.0 0.0 0.00 0.00 0.00 85 1020.6
20260903004301 57 325 0.0 0.0 0.00 0.00 0.00 85 1020.6
20260903004201 57 325 0.0 0.0 0.00 0.00 0.00 85 1020.6
20260903004101 57 325 0.0 0.0 0.00 0.00 0.00 85 1020.6
20260903004019 57 325 0.0 0.0 0.00 0.00 0.00 85 1020.6
20260903004015 57 325 0.0 0.0 0.00 0.00 0.00 85 1020.6
20260903004011 57 325 0.0 0.0 0.00 0.00 0.00 85 1020.5
20260903003701 57 325 0.0 0.0 0.00 0.00 0.00 85 1020.5
20260903003601 57 325 0.0 0.0 0.00 0.00 0.00 86 1020.5
20260903003501 57 325 0.0 0.0 0.00 0.00 0.00 86 1020.5
20260903003401 57 325 0.0 0.0 0.00 0.00 0.00 85 1020.5
20260903003301 57 325 0.0 0.0 0.00 0.00 0.00 85 1020.5
20260903003200 57 325 0.0 0.0 0.00 0.00 0.00 86 1020.5
20260903003101 58 325 0.0 0.0 0.00 0.00 0.00 86 1020.5
20260903003001 57 325 0.0 0.0 0.00 0.00 0.00 86 1020.6
20260903002900 58 325 0.0 0.0 0.00 0.00 0.00 85 1020.5
20260903002801 58 325 0.0 0.0 0.00 0.00 0.00 86 1020.6
20260903002701 58 325 0.0 0.0 0.00 0.00 0.00 86 1020.6
20260903002601 58 325 0.0 0.0 0.00 0.00 0.00 85 1020.6
20260903002501 58 326 0.0 0.0 0.00 0.00 0.00 85 1020.6
20260903002401 58 326 0.0 0.0 0.00 0.00 0.00 85 1020.6
20260903002301 58 326 0.0 0.0 0.00 0.00 0.00 85 1020.6
20260903002201 58 325 0.0 0.0 0.00 0.00 0.00 85 1020.5
20260903002101 58 325 0.0 0.0 0.00 0.00 0.00 85 1020.6
20260903002001 58 325 0.0 0.0 0.00 0.00 0.00 85 1020.6
20260903001901 58 326 0.0 0.0 0.00 0.00 0.00 85 1020.6
20260903001801 58 326 0.0 0.0 0.00 0.00 0.00 85 1020.6
20260903001701 58 326 0.0 0.0 0.00 0.00 0.00 85 1020.6
20260903001601 58 326 0.0 0.0 0.00 0.00 0.00 85 1020.6
20260903001500 58 326 0.0 0.0 0.00 0.00 0.00 85 1020.6
20260903001400 58 326 0.0 0.0 0.00 0.00 0.00 85 1020.6
20260903001301 58 326 0.0 0.0 0.00 0.00 0.00 84 1020.6
20260903001201 58 326 0.0 0.0 0.00 0.00 0.00 84 1020.6
20260903001101 58 326 0.0 0.0 0.00 0.00 0.00 84 1020.6
20260903001019 58 326 0.0 0.0 0.00 0.00 0.00 84 1020.6
20260903001015 58 326 0.0 0.0 0.00 0.00 0.00 84 1020.6
20260903001011 58 326 0.0 0.0 0.00 0.00 0.00 85 1020.7
20260903000700 58 326 0.0 0.0 0.00 0.00 0.00 85 1020.6
20260903000601 58 326 0.0 0.0 0.00 0.00 0.00 84 1020.6
20260903000500 58 326 0.0 0.0 0.00 0.00 0.00 84 1020.6
20260903000402 58 326 0.0 0.0 0.00 0.00 0.00 84 1020.6
20260903000303 58 326 0.0 0.0 0.00 0.00 0.00 84 1020.6
20260903000200 58 326 0.0 0.0 0.00 0.00 0.00 84 1020.6
20260903000100 58 326 0.0 0.0 0.00 0.00 0.00 84 1020.7
20260903000000 58 326 0.0 0.0 0.00 0.00 0.00 84 1020.6
20260902235901 58 326 0.0 0.0 0.00 0.00 0.00 84 1020.6
20260902235801 58 326 0.0 0.0 0.00 0.00 0.00 84 1020.6
20260902235701 58 326 0.0 0.0 0.00 0.00 0.00 84 1020.6
20260902235601 58 326 0.0 0.0 0.00 0.00 0.00 84 1020.6
20260902235520 58 326 0.0 0.0 0.00 0.00 0.00 84 1020.6
20260902235516 58 326 0.0 0.0 0.00 0.00 0.00 84 1020.6
20260902235512 58 326 0.0 0.0 0.00 0.00 0.00 84 1020.5
20260902235201 58 326 0.0 0.0 0.00 0.00 0.00 84 1020.6
20260902235101 58 326 0.0 0.0 0.00 0.00 0.00 84 1020.6
20260902235001 58 326 0.0 0.0 0.00 0.00 0.00 84 1020.6
20260902234901 58 326 0.0 0.0 0.00 0.00 0.00 84 1020.6
20260902234802 58 326 0.0 0.0 0.00 0.00 0.00 84 1020.6
20260902234701 58 326 0.0 0.0 0.00 0.00 0.00 84 1020.6
20260902234601 58 326 0.0 0.0 0.00 0.00 0.00 84 1020.5
20260902234500 58 326 0.0 0.0 0.00 0.00 0.00 84 1020.6
20260902234401 58 326 0.0 0.0 0.00 0.00 0.00 84 1020.5
20260902234301 58 326 0.0 0.0 0.00 0.00 0.00 84 1020.5
20260902234201 58 326 0.0 0.0 0.00 0.00 0.00 84 1020.5
20260902234101 58 326 0.0 0.0 0.00 0.00 0.00 84 1020.5
20260902234021 58 326 0.0 0.0 0.00 0.00 0.00 84 1020.5
20260902234017 58 326 0.0 0.0 0.00 0.00 0.00 84 1020.6
20260902234013 58 326 0.0 0.0 0.00 0.00 0.00 84 1020.6
20260902233701 58 326 0.0 0.0 0.00 0.00 0.00 84 1020.5
20260902233600 58 325 0.0 0.0 0.00 0.00 0.00 84 1020.5
20260902233501 58 325 0.0 0.0 0.00 0.00 0.00 84 1020.5
20260902233401 58 325 0.0 0.0 0.00 0.00 0.00 84 1020.6
20260902233301 58 325 0.0 0.0 0.00 0.00 0.00 84 1020.5
20260902233201 58 325 0.0 0.0 0.00 0.00 0.00 84 1020.6
20260902233101 58 325 0.0 0.0 0.00 0.00 0.00 84 1020.5
20260902233021 58 325 0.0 0.0 0.00 0.00 0.00 84 1020.6
20260902233017 58 325 0.0 0.0 0.00 0.00 0.00 84 1020.6
20260902233013 58 325 0.0 0.0 0.00 0.00 0.00 84 1020.6
20260902232701 58 325 0.0 0.0 0.00 0.00 0.00 84 1020.6
20260902232601 58 325 0.0 0.0 0.00 0.00 0.00 84 1020.6
20260902232501 58 323 0.0 0.0 0.00 0.00 0.00 84 1020.6
20260902232401 58 323 0.0 0.0 0.00 0.00 0.00 83 1020.6
20260902232301 58 323 0.0 0.0 0.00 0.00 0.00 83 1020.7
20260902232201 58 322 0.0 0.0 0.00 0.00 0.00 83 1020.6
20260902232101 58 323 0.0 0.0 0.00 0.00 0.00 83 1020.6
20260902232021 58 323 0.0 0.0 0.00 0.00 0.00 83 1020.6
20260902232017 58 322 0.0 0.0 0.00 0.00 0.00 83 1020.6
20260902232013 58 323 0.0 0.0 0.00 0.00 0.00 83 1020.6
20260902231701 58 323 0.0 0.0 0.00 0.00 0.00 83 1020.6
20260902231601 58 323 0.0 0.0 0.00 0.00 0.00 83 1020.6
20260902231501 58 323 0.0 0.0 0.00 0.00 0.00 83 1020.6
20260902231401 58 323 0.0 0.0 0.00 0.00 0.00 83 1020.7
20260902231301 58 322 0.0 0.0 0.00 0.00 0.00 83 1020.6
20260902231201 58 323 0.0 0.0 0.00 0.00 0.00 83 1020.7
20260902231101 58 323 0.0 0.0 0.00 0.00 0.00 83 1020.6
20260902231001 59 322 0.0 0.0 0.00 0.00 0.00 83 1020.6
20260902230901 58 323 0.0 0.0 0.00 0.00 0.00 83 1020.6
20260902230801 58 323 0.0 0.0 0.00 0.00 0.00 84 1020.6
20260902230701 58 322 0.0 0.0 0.00 0.00 0.00 84 1020.6
20260902230601 59 322 0.0 0.0 0.00 0.00 0.00 84 1020.6
20260902230501 58 322 0.0 0.0 0.00 0.00 0.00 84 1020.6
20260902230401 59 322 0.0 0.0 0.00 0.00 0.00 84 1020.6
20260902230300 59 322 0.0 0.0 0.00 0.00 0.00 83 1020.6
20260902230200 59 322 0.0 0.0 0.00 0.00 0.00 83 1020.6
20260902230100 59 322 0.0 0.0 0.00 0.00 0.00 83 1020.6
20260902225958 58 322 0.0 0.0 0.00 0.00 0.00 83 1020.6
20260902225856 59 322 0.0 0.0 0.00 0.00 0.00 83 1020.6
20260902225801 59 322 0.0 0.0 0.00 0.00 0.00 83 1020.6
20260902225756 59 322 0.0 0.0 0.00 0.00 0.00 83 1020.6
20260902225654 59 322 0.0 0.0 0.00 0.00 0.00 83 1020.6
20260902225554 59 322 0.0 0.0 0.00 0.00 0.00 83 1020.5
20260902225452 59 322 0.0 0.0 0.00 0.00 0.00 83 1020.5
20260902225352 59 322 0.0 0.0 0.00 0.00 0.00 83 1020.6
20260902225302 59 322 0.0 0.0 0.00 0.00 0.00 83 1020.6
20260902225251 59 322 0.0 0.0 0.00 0.00 0.00 83 1020.6
20260902225151 59 322 0.0 0.0 0.00 0.00 0.00 83 1020.6
20260902225052 59 322 0.0 0.0 0.00 0.00 0.00 83 1020.6
20260902224949 59 322 0.0 0.0 0.00 0.00 0.00 83 1020.6
20260902224850 59 322 0.0 0.0 0.00 0.00 0.00 83 1020.6
20260902224801 59 322 0.0 0.0 0.00 0.00 0.00 83 1020.6
20260902224748 59 322 0.0 0.0 0.00 0.00 0.00 83 1020.6
20260902224646 59 322 0.0 0.0 0.00 0.00 0.00 83 1020.6
20260902224546 59 322 0.0 0.0 0.00 0.00 0.00 83 1020.6
20260902224444 59 322 0.0 0.0 0.00 0.00 0.00 83 1020.6
20260902224344 59 322 0.0 0.0 0.00 0.00 0.00 82 1020.6
20260902224301 59 322 0.0 0.0 0.00 0.00 0.00 82 1020.6
20260902224242 59 322 0.0 0.0 0.00 0.00 0.00 82 1020.6
20260902224142 59 322 0.0 0.0 0.00 0.00 0.00 82 1020.6
20260902224042 59 322 0.0 0.0 0.00 0.00 0.00 82 1020.6
20260902223942 59 322 0.0 0.0 0.00 0.00 0.00 82 1020.6
20260902223842 59 322 0.0 0.0 0.00 0.00 0.00 82 1020.7
20260902223800 59 322 0.0 0.0 0.00 0.00 0.00 82 1020.7
20260902223740 59 322 0.0 0.0 0.00 0.00 0.00 82 1020.7
20260902223638 59 322 0.0 0.0 0.00 0.00 0.00 82 1020.6
20260902223538 59 322 0.0 0.0 0.00 0.00 0.00 82 1020.6
20260902223435 59 322 0.0 0.0 0.00 0.00 0.00 82 1020.7
20260902223336 59 322 0.0 0.0 0.00 0.00 0.00 82 1020.7
20260902223301 59 322 0.0 0.0 0.00 0.00 0.00 82 1020.7
20260902223234 59 322 0.0 0.0 0.00 0.00 0.00 82 1020.7
20260902223132 59 322 0.0 0.0 0.00 0.00 0.00 82 1020.6
20260902223029 59 322 0.0 0.0 0.00 0.00 0.00 82 1020.7
20260902222929 59 322 0.0 0.0 0.00 0.00 0.00 82 1020.7
20260902222801 59 322 0.0 0.0 0.00 0.00 0.00 82 1020.7
20260902222729 59 322 0.0 0.0 0.00 0.00 0.00 81 1020.7
20260902222630 59 322 0.0 0.0 0.00 0.00 0.00 81 1020.6
20260902222529 59 322 0.0 0.0 0.00 0.00 0.00 81 1020.6
20260902222429 59 322 0.0 0.0 0.00 0.00 0.00 81 1020.7
20260902222329 59 322 0.0 0.0 0.00 0.00 0.00 81 1020.7
20260902222301 60 322 0.0 0.0 0.00 0.00 0.00 81 1020.7
20260902222229 60 322 0.0 0.0 0.00 0.00 0.00 81 1020.7
20260902222128 60 322 0.0 0.0 0.00 0.00 0.00 81 1020.6
20260902222029 60 322 0.0 0.0 0.00 0.00 0.00 81 1020.7
20260902221929 60 322 0.0 0.0 0.00 0.00 0.00 81 1020.7
20260902221829 60 322 0.0 0.0 0.00 0.00 0.00 81 1020.7
20260902221802 60 322 0.0 0.0 0.00 0.00 0.00 80 1020.7
20260902221729 60 322 0.0 0.0 0.00 0.00 0.00 80 1020.7
20260902221629 60 322 0.0 0.0 0.00 0.00 0.00 80 1020.7
20260902221529 60 322 0.0 0.0 0.00 0.00 0.00 80 1020.7
20260902221429 60 322 0.0 0.0 0.00 0.00 0.00 80 1020.7
20260902221329 60 322 0.0 0.0 0.00 0.00 0.00 80 1020.7
20260902221229 60 322 0.0 0.0 0.00 0.00 0.00 80 1020.6
20260902221129 60 322 0.0 0.0 0.00 0.00 0.00 80 1020.6
20260902221029 60 322 0.0 0.0 0.00 0.00 0.00 80 1020.6
20260902220929 60 322 0.0 0.0 0.00 0.00 0.00 80 1020.6
20260902220828 60 322 0.0 0.0 0.00 0.00 0.00 80 1020.6
20260902220728 60 322 0.0 0.0 0.00 0.00 0.00 80 1020.6
20260902220628 60 322 0.0 0.0 0.00 0.00 0.00 80 1020.6
20260902220528 60 322 0.0 0.0 0.00 0.00 0.00 80 1020.6
20260902220428 60 322 0.0 0.0 0.00 0.00 0.00 80 1020.6
20260902220328 60 322 0.0 0.0 0.00 0.00 0.00 80 1020.6
20260902220229 60 322 0.0 0.0 0.00 0.00 0.00 80 1020.6
20260902220129 60 322 0.0 0.0 0.00 0.00 0.00 80 1020.6
20260902220029 60 322 0.0 0.0 0.00 0.00 0.00 80 1020.6
20260902215929 60 322 0.0 0.0 0.00 0.00 0.00 80 1020.6
20260902215829 60 322 0.0 0.0 0.00 0.00 0.00 80 1020.6
20260902215729 60 322 0.0 0.0 0.00 0.00 0.00 80 1020.6
20260902215629 60 322 0.0 0.0 0.00 0.00 0.00 80 1020.6
20260902215529 60 322 0.0 0.0 0.00 0.00 0.00 80 1020.6
20260902215510 60 322 0.0 0.0 0.00 0.00 0.00 80 1020.5
20260902215505 60 322 0.0 0.0 0.00 0.00 0.00 80 1020.6
20260902215501 60 322 0.0 0.0 0.00 0.00 0.00 80 1020.6
20260902215229 60 322 0.0 0.0 0.00 0.00 0.00 80 1020.6
20260902215129 60 322 0.0 0.0 0.00 0.00 0.00 80 1020.6
20260902215028 61 322 0.0 0.0 0.00 0.00 0.00 80 1020.5
20260902214929 61 322 0.0 0.0 0.00 0.00 0.00 80 1020.5
20260902214829 61 322 0.0 0.0 0.00 0.00 0.00 80 1020.5
20260902214749 61 322 0.0 0.0 0.00 0.00 0.00 80 1020.6
20260902214729 61 322 0.0 0.0 0.00 0.00 0.00 79 1020.6
20260902214629 61 322 0.0 0.0 0.00 0.00 0.00 79 1020.5
20260902214529 61 322 0.0 0.0 0.00 0.00 0.00 79 1020.5
20260902214429 61 322 0.0 0.0 0.00 0.00 0.00 79 1020.5
20260902214329 61 322 0.0 0.0 0.00 0.00 0.00 79 1020.5
20260902214229 61 322 0.0 0.0 0.00 0.00 0.00 78 1020.5
20260902214128 61 322 0.0 0.0 0.00 0.00 0.00 79 1020.5
20260902214030 61 322 0.0 0.0 0.00 0.00 0.00 79 1020.5
20260902213929 61 322 0.0 0.0 0.00 0.00 0.00 79 1020.4
20260902213828 61 322 0.0 0.0 0.00 0.00 0.00 79 1020.4
20260902213728 61 322 0.0 0.0 0.00 0.00 0.00 79 1020.4
20260902213628 61 322 0.0 0.0 0.00 0.00 0.00 78 1020.4
20260902213532 61 322 0.0 0.0 0.00 0.00 0.00 78 1020.4
20260902213427 61 322 0.0 0.0 0.00 0.00 0.00 78 1020.4
20260902213327 61 322 0.0 0.0 0.00 0.00 0.00 78 1020.4
20260902213227 61 322 0.0 0.0 0.00 0.00 0.00 78 1020.4
20260902213126 61 322 0.0 0.0 0.00 0.00 0.00 78 1020.4
20260902213031 61 322 0.0 0.0 0.00 0.00 0.00 78 1020.3
20260902212921 62 322 0.0 0.0 0.00 0.00 0.00 78 1020.3
20260902212821 62 322 0.0 0.0 0.00 0.00 0.00 77 1020.3
20260902212741 62 322 0.0 0.0 0.00 0.00 0.00 77 1020.3
20260902212721 62 322 0.0 0.0 0.00 0.00 0.00 77 1020.4
20260902212621 62 322 0.0 0.0 0.00 0.00 0.00 77 1020.3
20260902212525 62 322 0.0 0.0 0.00 0.00 0.00 77 1020.4
20260902212417 62 322 0.0 0.0 0.00 0.00 0.00 77 1020.3
20260902212317 62 322 0.0 0.0 0.00 0.00 0.00 77 1020.3
20260902212216 62 322 0.0 0.0 0.00 0.00 0.00 77 1020.3
20260902212114 62 322 0.0 0.0 0.00 0.00 0.00 77 1020.3
20260902212016 62 322 0.0 0.0 0.00 0.00 0.00 76 1020.3
20260902211914 62 322 0.0 0.0 0.00 0.00 0.00 77 1020.3
20260902211814 62 322 0.0 0.0 0.00 0.00 0.00 76 1020.3
20260902211715 62 322 0.0 0.0 0.00 0.00 0.00 76 1020.3
20260902211615 62 322 0.0 0.0 0.00 0.00 0.00 76 1020.2
20260902211515 62 322 0.0 0.0 0.00 0.00 0.00 76 1020.3
20260902211415 62 322 0.0 0.0 0.00 0.00 0.00 76 1020.3
20260902211315 62 322 0.0 0.0 0.00 0.00 0.00 76 1020.2
20260902211215 62 322 0.0 0.0 0.00 0.00 0.00 76 1020.2
20260902211211 63 322 0.0 0.0 0.00 0.00 0.00 75 1020.2
20260902211207 63 322 0.0 0.0 0.00 0.00 0.00 76 1020.2
20260902211202 62 322 0.0 0.0 0.00 0.00 0.00 76 1020.3
20260902211158 63 322 0.0 0.0 0.00 0.00 0.00 76 1020.2
20260902211150 63 322 0.0 0.0 0.00 0.00 0.00 76 1020.2
20260902211146 63 322 0.0 0.0 0.00 0.00 0.00 76 1020.2
20260902210709 63 322 0.0 0.0 0.00 0.00 0.00 76 1020.2
20260902210607 63 322 0.0 0.0 0.00 0.00 0.00 75 1020.2
20260902210551 63 322 0.0 0.0 0.00 0.00 0.00 75 1020.2
20260902210450 63 322 0.0 0.0 0.00 0.00 0.00 75 1020.2
20260902210446 63 322 0.0 0.0 0.00 0.00 0.00 75 1020.2
20260902210202 63 322 0.0 0.0 0.00 0.00 0.00 75 1020.2
20260902210100 63 322 0.0 0.0 0.00 0.00 0.00 74 1020.2
20260902210001 63 322 0.0 0.0 0.00 0.00 0.00 74 1020.1
20260902205902 63 322 0.0 0.0 0.00 0.00 0.00 74 1020.1
20260902205802 64 322 0.0 0.0 0.00 0.00 0.00 74 1020.1
20260902205733 64 322 0.0 0.0 0.00 0.00 0.00 74 1020.1
20260902205700 64 322 0.0 0.0 0.00 0.00 0.00 74 1020.1
20260902205601 64 322 0.0 0.0 0.00 0.00 0.00 74 1020.1
20260902205501 64 322 0.0 0.0 0.00 0.00 0.00 74 1020.1
20260902205401 64 322 0.0 0.0 0.00 0.00 0.00 73 1020.1
20260902205233 64 322 0.0 0.0 0.00 0.00 0.00 73 1020.1
20260902205158 64 322 0.0 0.0 0.00 0.00 0.00 73 1020.1
20260902205057 64 322 0.0 0.0 0.00 0.00 0.00 73 1020.1
20260902204956 64 322 0.0 0.0 0.00 0.00 0.00 73 1020.0
20260902204854 64 322 0.0 0.0 0.00 0.00 0.00 73 1020.0
20260902204753 64 322 0.0 0.0 0.00 0.00 0.00 73 1020.0
20260902204733 64 322 0.0 0.0 0.00 0.00 0.00 72 1020.0
20260902204649 64 322 0.0 0.0 0.00 0.00 0.00 72 1020.0
20260902204548 64 322 0.0 0.0 0.00 0.00 0.00 72 1020.0
20260902204449 64 322 0.0 0.0 0.00 0.00 0.00 71 1020.1
20260902204348 64 322 0.0 0.0 0.00 0.00 0.00 71 1020.0
20260902204233 64 322 0.0 0.0 0.00 0.00 0.00 71 1020.0
20260902204144 64 322 0.0 0.0 0.00 0.00 0.00 71 1020.0
20260902204042 64 322 0.0 0.0 0.00 0.00 0.00 70 1020.0
20260902203947 65 322 0.0 0.0 0.00 0.00 0.00 71 1019.9
20260902203943 64 322 0.0 0.0 0.00 0.00 0.00 70 1020.0
20260902203937 65 322 0.0 0.0 0.00 0.00 0.00 70 1020.0
20260902203929 65 322 0.0 0.0 0.00 0.00 0.00 70 1020.0
20260902203711 65 322 0.0 0.0 0.00 0.00 0.00 70 1020.0
20260902203707 65 322 0.0 0.0 0.00 0.00 0.00 70 1020.0
20260902203448 65 322 0.0 0.0 0.00 0.00 0.00 70 1019.9
20260902203444 65 322 0.0 0.0 0.00 0.00 0.00 71 1020.0
20260902203440 65 322 0.0 0.0 0.00 0.00 0.00 71 1019.9
20260902203128 65 322 0.0 0.0 0.00 0.00 0.00 70 1019.9
20260902203029 65 322 0.0 0.0 0.00 0.00 0.00 70 1019.9
20260902202928 65 322 0.0 0.0 0.00 0.00 0.00 69 1020.0
20260902202829 65 322 0.0 0.0 0.00 0.00 0.00 68 1020.0
20260902202729 65 322 0.0 0.0 0.00 0.00 0.00 68 1020.0
20260902202629 65 322 0.0 0.0 0.00 0.00 0.00 68 1019.9
20260902202529 65 322 0.0 0.0 0.00 0.00 0.00 68 1019.9
20260902202429 65 322 0.0 0.0 0.00 0.00 0.00 68 1019.9
20260902202328 65 322 0.0 0.0 0.00 0.00 0.00 68 1019.9
20260902202229 65 322 0.0 0.0 0.00 0.00 0.00 68 1019.9
20260902202129 65 322 0.0 0.0 0.00 0.00 0.00 68 1019.9
20260902202029 65 322 0.0 0.0 0.00 0.00 0.00 68 1019.9
20260902201927 65 322 0.0 0.0 0.00 0.00 0.00 68 1019.9
20260902201827 65 322 0.0 0.0 0.00 0.00 0.00 68 1020.0
20260902201727 65 322 0.0 0.0 0.00 0.00 0.00 68 1019.9
20260902201627 65 322 0.0 0.0 0.00 0.00 0.00 68 1019.9
20260902201526 65 322 0.0 0.9 0.00 0.00 0.00 68 1020.0
20260902201454 65 322 0.0 0.9 0.00 0.00 0.00 68 1020.0
20260902201446 65 322 0.0 0.9 0.00 0.00 0.00 68 1019.9
20260902201442 65 322 0.0 0.9 0.00 0.00 0.00 68 1019.9
20260902201227 65 322 0.0 0.9 0.00 0.00 0.00 68 1020.0
20260902201127 65 322 0.0 0.9 0.00 0.00 0.00 69 1019.9
20260902201027 65 322 0.0 0.9 0.00 0.00 0.00 69 1020.0
20260902200953 66 322 0.0 0.9 0.00 0.00 0.00 69 1019.9
20260902200945 65 322 0.0 0.9 0.00 0.00 0.00 69 1019.9
20260902200941 65 322 0.0 0.9 0.00 0.00 0.00 69 1019.9
20260902200723 66 322 0.0 0.9 0.00 0.00 0.00 69 1019.9
20260902200622 66 322 0.0 0.9 0.00 0.00 0.00 69 1019.9
20260902200522 66 322 0.0 0.9 0.00 0.00 0.00 69 1019.9
20260902200422 66 322 0.0 0.0 0.00 0.00 0.00 68 1019.9
20260902200322 66 322 0.0 0.0 0.00 0.00 0.00 68 1019.9
20260902200223 66 322 0.0 0.0 0.00 0.00 0.00 68 1019.9
20260902200123 66 322 0.0 0.0 0.00 0.00 0.00 68 1019.9
20260902200023 66 322 0.0 0.0 0.00 0.00 0.00 68 1019.9
20260902195923 66 322 0.0 0.0 0.00 0.00 0.00 68 1019.9
20260902195823 66 322 0.0 0.0 0.00 0.00 0.00 68 1019.9
20260902195722 66 322 0.0 0.0 0.00 0.00 0.00 68 1019.9
20260902195622 66 322 0.0 0.0 0.00 0.00 0.00 68 1019.9
20260902195522 66 322 0.0 0.0 0.00 0.00 0.00 67 1019.9
20260902195423 66 322 0.0 0.0 0.00 0.00 0.00 68 1019.9
20260902195322 66 322 0.0 0.0 0.00 0.00 0.00 68 1019.9
20260902195222 66 322 0.0 0.0 0.00 0.00 0.00 68 1019.9
20260902195122 66 322 0.0 0.0 0.00 0.00 0.00 67 1019.9
20260902195022 66 322 0.0 0.0 0.00 0.00 0.00 67 1019.9
20260902194923 66 322 0.0 0.0 0.00 0.00 0.00 67 1019.9
20260902194819 66 322 0.0 0.0 0.00 0.00 0.00 67 1019.9
20260902194719 66 322 0.0 0.0 0.00 0.00 0.00 67 1019.9
20260902194619 66 322 0.0 0.9 0.00 0.00 0.00 67 1019.9
20260902194518 67 322 0.0 0.9 0.00 0.00 0.00 67 1019.9
20260902194419 67 322 0.0 0.9 0.00 0.00 0.00 67 1019.9
20260902194319 67 322 0.0 0.9 0.00 0.00 0.00 67 1019.9
20260902194218 67 322 0.0 0.9 0.00 0.00 0.00 66 1019.9
20260902194118 67 322 0.0 0.9 0.00 0.00 0.00 67 1019.9
20260902194018 67 322 0.0 0.9 0.00 0.00 0.00 66 1019.8
20260902193918 67 322 0.0 0.9 0.00 0.00 0.00 66 1019.9
20260902193818 67 322 0.0 0.9 0.00 0.00 0.00 66 1019.8
20260902193729 67 322 0.0 0.9 0.00 0.00 0.00 66 1019.8
20260902193718 67 322 0.9 1.7 0.00 0.00 0.00 66 1019.8
20260902193618 67 322 0.9 1.7 0.00 0.00 0.00 66 1019.8
20260902193518 67 322 0.9 1.7 0.00 0.00 0.00 66 1019.8
20260902193455 67 322 0.9 1.7 0.00 0.00 0.00 66 1019.8
20260902193450 67 322 0.9 1.7 0.00 0.00 0.00 66 1019.8
20260902193442 67 322 0.9 1.7 0.00 0.00 0.00 65 1019.8
20260902193218 67 322 0.9 1.7 0.00 0.00 0.00 66 1019.8
20260902193118 67 322 0.9 1.7 0.00 0.00 0.00 65 1019.9
20260902193019 67 322 0.9 1.7 0.00 0.00 0.00 65 1019.8
20260902192955 67 322 0.0 1.7 0.00 0.00 0.00 65 1019.8
20260902192946 67 322 0.0 1.7 0.00 0.00 0.00 65 1019.8
20260902192939 67 322 0.0 1.7 0.00 0.00 0.00 65 1019.8
20260902192715 67 322 0.0 1.7 0.00 0.00 0.00 65 1019.8
20260902192615 67 322 0.0 1.7 0.00 0.00 0.00 65 1019.8
20260902192515 67 322 0.0 0.9 0.00 0.00 0.00 65 1019.8
20260902192415 67 322 0.0 0.9 0.00 0.00 0.00 65 1019.8
20260902192315 67 322 0.0 0.9 0.00 0.00 0.00 65 1019.8
20260902192229 67 322 0.0 0.9 0.00 0.00 0.00 65 1019.8
20260902192216 67 322 0.0 0.9 0.00 0.00 0.00 64 1019.8
20260902192114 67 322 0.0 1.7 0.00 0.00 0.00 65 1019.8
20260902192014 67 322 0.9 1.7 0.00 0.00 0.00 64 1019.8
20260902191914 67 322 0.9 1.7 0.00 0.00 0.00 64 1019.8
20260902191815 67 322 0.9 1.7 0.00 0.00 0.00 64 1019.8
20260902191714 67 322 0.9 1.7 0.00 0.00 0.00 64 1019.8
20260902191614 67 322 0.9 1.7 0.00 0.00 0.00 64 1019.7
20260902191514 67 322 0.9 1.7 0.00 0.00 0.00 63 1019.7
20260902191414 67 322 0.9 1.7 0.00 0.00 0.00 63 1019.7
20260902191314 68 322 0.9 1.7 0.00 0.00 0.00 63 1019.7
20260902191214 68 322 0.9 1.7 0.00 0.00 0.00 63 1019.7
20260902191115 68 322 0.9 1.7 0.00 0.00 0.00 63 1019.7
20260902191011 68 322 0.9 1.7 0.00 0.00 0.00 63 1019.5
20260902190911 68 322 0.9 1.7 0.00 0.00 0.00 63 1019.7
20260902190811 68 322 0.9 1.7 0.00 0.00 0.00 63 1019.7
20260902190710 68 322 0.9 1.7 0.00 0.00 0.00 63 1019.7
20260902190610 68 322 0.9 1.7 0.00 0.00 0.00 63 1019.5
20260902190510 68 322 0.9 1.7 0.00 0.00 0.00 62 1019.5
20260902190410 68 322 0.9 1.7 0.00 0.00 0.00 62 1019.5
20260902190310 68 322 0.9 1.7 0.00 0.00 0.00 62 1019.5
20260902190210 68 322 0.9 1.7 0.00 0.00 0.00 62 1019.5
20260902190110 68 322 0.9 1.7 0.00 0.00 0.00 62 1019.5
20260902190011 68 322 0.9 1.7 0.00 0.00 0.00 62 1019.5
20260902185911 68 322 0.9 1.7 0.00 0.00 0.00 62 1019.5
20260902185811 68 322 0.9 1.7 0.00 0.00 0.00 63 1019.5
20260902185729 68 322 0.9 1.7 0.00 0.00 0.00 62 1019.5
20260902185711 68 322 0.9 2.6 0.00 0.00 0.00 62 1019.4
20260902185611 68 322 0.9 2.6 0.00 0.00 0.00 62 1019.5
20260902185510 68 322 1.7 3.5 0.00 0.00 0.00 62 1019.4
20260902185410 68 322 1.7 3.5 0.00 0.00 0.00 62 1019.4
20260902185310 68 322 1.7 3.5 0.00 0.00 0.00 61 1019.4
20260902185229 68 322 1.7 3.5 0.00 0.00 0.00 61 1019.4
20260902185210 69 322 1.7 3.5 0.00 0.00 0.00 61 1019.3
20260902185110 69 322 0.9 3.5 0.00 0.00 0.00 61 1019.3
20260902185010 69 322 1.7 3.5 0.00 0.00 0.00 61 1019.3
20260902184910 69 322 1.7 3.5 0.00 0.00 0.00 61 1019.3
20260902184810 69 322 1.7 3.5 0.00 0.00 0.00 60 1019.3
20260902184710 69 322 1.7 3.5 0.00 0.00 0.00 61 1019.3
20260902184608 69 322 1.7 3.5 0.00 0.00 0.00 61 1019.3
20260902184509 69 300 1.7 2.6 0.00 0.00 0.00 60 1019.3
20260902184407 69 300 1.7 3.5 0.00 0.00 0.00 60 1019.3
20260902184306 69 274 1.7 3.5 0.00 0.00 0.00 60 1019.3
20260902184207 69 274 1.7 3.5 0.00 0.00 0.00 60 1019.3
20260902184105 69 274 1.7 3.5 0.00 0.00 0.00 60 1019.2
20260902184003 69 274 1.7 3.5 0.00 0.00 0.00 60 1019.3
20260902183903 69 274 0.9 3.5 0.00 0.00 0.00 60 1019.2
20260902183803 69 274 0.9 3.5 0.00 0.00 0.00 61 1019.3
20260902183729 69 274 0.9 3.5 0.00 0.00 0.00 61 1019.3
20260902183702 69 288 0.9 3.5 0.00 0.00 0.00 61 1019.2
20260902183601 69 293 0.9 3.5 0.00 0.00 0.00 61 1019.3
20260902183501 69 302 0.9 3.5 0.00 0.00 0.00 61 1019.2
20260902183402 69 309 0.9 3.5 0.00 0.00 0.00 61 1019.2
20260902183301 69 310 0.9 3.5 0.00 0.00 0.00 61 1019.1
20260902183216 69 310 1.7 3.5 0.00 0.00 0.00 60 1019.1
20260902183212 69 310 0.9 3.5 0.00 0.00 0.00 60 1019.1
20260902183208 69 310 0.9 3.5 0.00 0.00 0.00 60 1019.1
20260902183204 69 310 0.9 3.5 0.00 0.00 0.00 60 1019.1
20260902182948 69 310 0.9 3.5 0.00 0.00 0.00 61 1019.1
20260902182940 69 310 1.7 3.5 0.00 0.00 0.00 60 1019.1
20260902182656 69 310 1.7 3.5 0.00 0.00 0.00 60 1019.1
20260902182554 70 310 1.7 3.5 0.00 0.00 0.00 59 1019.1
20260902182457 70 310 1.7 7.0 0.00 0.00 0.00 59 1019.0
20260902182453 70 310 1.7 3.5 0.00 0.00 0.00 59 1019.1
20260902182449 70 310 1.7 3.5 0.00 0.00 0.00 59 1019.1
20260902182441 70 310 1.7 5.2 0.00 0.00 0.00 58 1019.0
20260902182148 70 310 1.7 7.0 0.00 0.00 0.00 59 1019.1
20260902182048 70 310 2.6 7.0 0.00 0.00 0.00 58 1019.1
20260902181945 70 310 2.6 7.0 0.00 0.00 0.00 58 1019.0
20260902181842 70 310 2.6 7.0 0.00 0.00 0.00 58 1019.0
20260902181729 70 308 2.6 7.0 0.00 0.00 0.00 58 1019.0
20260902181642 70 308 2.6 7.0 0.00 0.00 0.00 58 1019.0
20260902181542 70 308 2.6 7.0 0.00 0.00 0.00 58 1019.0
20260902181440 70 307 2.6 7.0 0.00 0.00 0.00 57 1019.0
20260902181337 70 318 2.6 7.0 0.00 0.00 0.00 57 1019.1
20260902181234 70 320 1.7 7.0 0.00 0.00 0.00 57 1019.1
20260902181228 70 319 1.7 7.0 0.00 0.00 0.00 57 1019.1
20260902181134 70 293 1.7 3.5 0.00 0.00 0.00 56 1019.0
20260902181034 70 244 1.7 2.6 0.00 0.00 0.00 55 1018.9
20260902180933 70 244 1.7 2.6 0.00 0.00 0.00 55 1018.9
20260902180832 70 244 1.7 2.6 0.00 0.00 0.00 55 1018.9
20260902180728 70 243 1.7 2.6 0.00 0.00 0.00 55 1018.9
20260902180719 70 238 0.9 2.6 0.00 0.00 0.00 54 1018.8
20260902180708 70 243 1.7 2.6 0.00 0.00 0.00 54 1018.8
20260902180704 70 244 0.9 2.6 0.00 0.00 0.00 55 1018.8
20260902180449 70 238 0.9 2.6 0.00 0.00 0.00 54 1018.8
20260902180441 70 238 0.9 2.6 0.00 0.00 0.00 54 1018.8
20260902180222 70 238 0.9 2.6 0.00 0.00 0.00 54 1018.8
20260902180122 70 238 0.9 2.6 0.00 0.00 0.00 55 1018.8
20260902180022 70 238 0.9 2.6 0.00 0.00 0.00 54 1018.8
20260902175922 70 238 0.9 2.6 0.00 0.00 0.00 54 1018.8
20260902175819 71 238 0.9 2.6 0.00 0.00 0.00 54 1018.8
20260902175732 71 238 0.9 2.6 0.00 0.00 0.00 55 1018.8
20260902175718 70 238 0.9 2.6 0.00 0.00 0.00 55 1018.8
20260902175618 70 238 0.9 2.6 0.00 0.00 0.00 54 1018.7
20260902175518 71 238 0.9 2.6 0.00 0.00 0.00 54 1018.7
20260902175416 71 238 0.9 2.6 0.00 0.00 0.00 54 1018.7
20260902175312 71 238 0.9 2.6 0.00 0.00 0.00 54 1018.7
20260902175220 71 242 0.9 2.6 0.00 0.00 0.00 54 1018.6
20260902175215 71 238 0.9 2.6 0.00 0.00 0.00 54 1018.7
20260902175212 71 239 0.9 2.6 0.00 0.00 0.00 54 1018.7
20260902175207 71 239 0.9 2.6 0.00 0.00 0.00 54 1018.6
20260902174949 71 239 0.9 2.6 0.00 0.00 0.00 54 1018.6
20260902174940 71 242 0.9 2.6 0.00 0.00 0.00 54 1018.6
20260902174709 71 242 1.7 2.6 0.00 0.00 0.00 54 1018.6
20260902174609 71 242 1.7 2.6 0.00 0.00 0.00 54 1018.5
20260902174506 71 242 1.7 2.6 0.00 0.00 0.00 54 1018.6
20260902174406 71 243 1.7 2.6 0.00 0.00 0.00 53 1018.5
20260902174307 71 243 1.7 2.6 0.00 0.00 0.00 54 1018.5
20260902174204 71 243 1.7 2.6 0.00 0.00 0.00 54 1018.5
20260902174104 71 243 1.7 2.6 0.00 0.00 0.00 54 1018.5
20260902174002 71 243 1.7 2.6 0.00 0.00 0.00 54 1018.5
20260902173902 71 244 1.7 2.6 0.00 0.00 0.00 54 1018.5
20260902173801 71 243 1.7 2.6 0.00 0.00 0.00 54 1018.5
20260902173729 71 244 1.7 3.5 0.00 0.00 0.00 54 1018.5
20260902173702 71 244 1.7 3.5 0.00 0.00 0.00 53 1018.5
20260902173602 71 227 1.7 3.5 0.00 0.00 0.00 53 1018.4
20260902173501 71 227 1.7 3.5 0.00 0.00 0.00 54 1018.5
20260902173401 71 227 1.7 3.5 0.00 0.00 0.00 53 1018.4
20260902173302 71 227 1.7 3.5 0.00 0.00 0.00 53 1018.4
20260902173229 71 227 1.7 3.5 0.00 0.00 0.00 53 1018.4
20260902173201 71 225 1.7 3.5 0.00 0.00 0.00 53 1018.4
20260902173101 71 225 1.7 3.5 0.00 0.00 0.00 52 1018.4
20260902173001 72 225 1.7 3.5 0.00 0.00 0.00 53 1018.4
20260902172901 72 225 1.7 3.5 0.00 0.00 0.00 52 1018.4
20260902172801 72 225 1.7 3.5 0.00 0.00 0.00 53 1018.4
20260902172701 72 225 1.7 3.5 0.00 0.00 0.00 53 1018.4
20260902172601 72 225 2.6 3.5 0.00 0.00 0.00 53 1018.4
20260902172504 72 234 1.7 3.5 0.00 0.00 0.00 53 1018.4
20260902172500 72 255 2.6 4.3 0.00 0.00 0.00 53 1018.4
20260902172449 72 254 1.7 3.5 0.00 0.00 0.00 53 1018.4
20260902172441 72 254 2.6 3.5 0.00 0.00 0.00 53 1018.4
20260902172200 72 255 2.6 4.3 0.00 0.00 0.00 53 1018.4
20260902172101 72 257 2.6 6.1 0.00 0.00 0.00 53 1018.3
20260902172001 72 258 2.6 6.1 0.00 0.00 0.00 52 1018.3
20260902171901 72 258 2.6 6.1 0.00 0.00 0.00 53 1018.4
20260902171800 72 258 2.6 6.1 0.00 0.00 0.00 53 1018.3
20260902171728 72 248 2.6 6.1 0.00 0.00 0.00 53 1018.3
20260902171703 72 248 2.6 6.1 0.00 0.00 0.00 53 1018.4
20260902171602 72 248 2.6 6.1 0.00 0.00 0.00 52 1018.4
20260902171501 72 247 2.6 6.1 0.00 0.00 0.00 52 1018.4
20260902171401 72 247 2.6 6.1 0.00 0.00 0.00 51 1018.4
20260902171300 73 246 2.6 6.1 0.00 0.00 0.00 52 1018.4
20260902171229 73 267 2.6 6.1 0.00 0.00 0.00 52 1018.4
20260902171202 73 270 2.6 6.1 0.00 0.00 0.00 52 1018.4
20260902171100 73 269 1.7 6.1 0.00 0.00 0.00 52 1018.4
20260902171001 73 256 2.6 6.1 0.00 0.00 0.00 52 1018.4
20260902170900 73 254 2.6 6.1 0.00 0.00 0.00 52 1018.4
20260902170800 73 247 1.7 6.1 0.00 0.00 0.00 52 1018.4
20260902170730 73 246 1.7 6.1 0.00 0.00 0.00 52 1018.4
20260902170700 73 251 1.7 6.1 0.00 0.00 0.00 52 1018.4
20260902170558 73 259 1.7 6.1 0.00 0.00 0.00 51 1018.4
20260902170458 73 249 1.7 3.5 0.00 0.00 0.00 51 1018.4
20260902170355 73 251 1.7 5.2 0.00 0.00 0.00 51 1018.4
20260902170229 73 251 2.6 5.2 0.00 0.00 0.00 52 1018.4
20260902170154 73 251 2.6 5.2 0.00 0.00 0.00 51 1018.4
20260902170052 73 244 2.6 5.2 0.00 0.00 0.00 51 1018.4
20260902165952 73 244 2.6 6.1 0.00 0.00 0.00 51 1018.4
20260902165852 73 261 2.6 6.1 0.00 0.00 0.00 51 1018.4
20260902165729 73 261 2.6 6.1 0.00 0.00 0.00 51 1018.4
20260902165650 73 261 2.6 6.1 0.00 0.00 0.00 51 1018.4
20260902165550 73 262 2.6 6.1 0.00 0.00 0.00 50 1018.4
20260902165450 74 264 2.6 6.1 0.00 0.00 0.00 51 1018.4
20260902165349 74 254 2.6 6.1 0.00 0.00 0.00 50 1018.4
20260902165246 74 287 2.6 6.1 0.00 0.00 0.00 50 1018.4
20260902165228 74 256 2.6 6.1 0.00 0.00 0.00 50 1018.4
20260902165146 74 253 2.6 6.1 0.00 0.00 0.00 51 1018.4
20260902165044 74 271 2.6 6.1 0.00 0.00 0.00 50 1018.3
20260902165003 74 249 3.5 6.1 0.00 0.00 0.00 50 1018.3
20260902164951 74 248 2.6 6.1 0.00 0.00 0.00 50 1018.4
20260902164947 74 248 3.5 6.1 0.00 0.00 0.00 50 1018.3
20260902164940 74 248 3.5 6.1 0.00 0.00 0.00 50 1018.3
20260902164640 74 227 3.5 6.1 0.00 0.00 0.00 50 1018.4
20260902164538 74 241 3.5 6.1 0.00 0.00 0.00 50 1018.4
20260902164436 74 248 3.5 6.1 0.00 0.00 0.00 50 1018.4
20260902164336 74 236 3.5 6.1 0.00 0.00 0.00 50 1018.3
20260902164234 74 269 3.5 6.1 0.00 0.00 0.00 49 1018.4
20260902164228 74 271 3.5 6.1 0.00 0.00 0.00 49 1018.4
20260902164134 74 268 3.5 6.1 0.00 0.00 0.00 50 1018.4
20260902164032 74 271 3.5 7.0 0.00 0.00 0.00 49 1018.4
20260902163930 74 263 3.5 7.0 0.00 0.00 0.00 49 1018.4
20260902163830 74 275 3.5 7.0 0.00 0.00 0.00 50 1018.3
20260902163729 74 268 3.5 7.0 0.00 0.00 0.00 49 1018.4
20260902163629 74 258 3.5 7.0 0.00 0.00 0.00 49 1018.4
20260902163529 74 263 3.5 7.0 0.00 0.00 0.00 48 1018.3
20260902163429 74 264 3.5 7.0 0.00 0.00 0.00 49 1018.3
20260902163329 74 278 2.6 7.0 0.00 0.00 0.00 49 1018.3
20260902163229 74 269 2.6 7.0 0.00 0.00 0.00 49 1018.3
20260902163126 74 258 2.6 5.2 0.00 0.00 0.00 49 1018.3
20260902163026 75 255 2.6 6.1 0.00 0.00 0.00 50 1018.3
20260902162926 75 225 2.6 6.1 0.00 0.00 0.00 50 1018.3
20260902162826 75 271 3.5 7.0 0.00 0.00 0.00 49 1018.2
20260902162730 75 281 3.5 7.0 0.00 0.00 0.00 48 1018.2
20260902162724 75 257 3.5 7.0 0.00 0.00 0.00 48 1018.3
20260902162620 75 250 3.5 7.0 0.00 0.00 0.00 48 1018.3
20260902162520 75 250 3.5 7.0 0.00 0.00 0.00 48 1018.3
20260902162420 75 251 3.5 7.0 0.00 0.00 0.00 48 1018.3
20260902162320 75 246 4.3 7.0 0.00 0.00 0.00 48 1018.3
20260902162229 75 246 4.3 7.8 0.00 0.00 0.00 48 1018.3
20260902162218 75 263 4.3 7.8 0.00 0.00 0.00 48 1018.4
20260902162112 75 238 4.3 8.7 0.00 0.00 0.00 48 1018.4
20260902162013 75 285 4.3 8.7 0.00 0.00 0.00 48 1018.4
20260902161912 75 269 4.3 8.7 0.00 0.00 0.00 48 1018.4
20260902161812 75 252 4.3 8.7 0.00 0.00 0.00 48 1018.4
20260902161729 75 270 4.3 8.7 0.00 0.00 0.00 48 1018.4
20260902161711 75 269 4.3 8.7 0.00 0.00 0.00 48 1018.4
20260902161607 75 275 5.2 8.7 0.00 0.00 0.00 47 1018.3
20260902161506 75 296 4.3 8.7 0.00 0.00 0.00 47 1018.3
20260902161406 75 260 4.3 8.7 0.00 0.00 0.00 47 1018.3
20260902161306 75 268 4.3 8.7 0.00 0.00 0.00 47 1018.3
20260902161228 75 244 4.3 8.7 0.00 0.00 0.00 47 1018.3
20260902161206 75 275 4.3 8.7 0.00 0.00 0.00 47 1018.3
20260902161102 75 270 4.3 7.8 0.00 0.00 0.00 47 1018.3
20260902161002 75 269 3.5 7.8 0.00 0.00 0.00 46 1018.3
20260902160902 75 272 3.5 7.0 0.00 0.00 0.00 46 1018.3
20260902160802 75 240 3.5 7.0 0.00 0.00 0.00 47 1018.3
20260902160729 75 276 3.5 7.0 0.00 0.00 0.00 47 1018.3
20260902160721 75 284 3.5 8.7 0.00 0.00 0.00 47 1018.2
20260902160716 75 268 3.5 7.0 0.00 0.00 0.00 47 1018.2
20260902160712 75 269 3.5 7.8 0.00 0.00 0.00 47 1018.2
20260902160708 75 273 3.5 7.8 0.00 0.00 0.00 47 1018.2
20260902160448 75 263 3.5 7.8 0.00 0.00 0.00 47 1018.2
20260902160444 75 275 3.5 7.8 0.00 0.00 0.00 47 1018.2
20260902160201 75 286 3.5 8.7 0.00 0.00 0.00 47 1018.2
20260902160001 75 257 4.3 8.7 0.00 0.00 0.00 47 1018.2
20260902155901 75 232 3.5 8.7 0.00 0.00 0.00 46 1018.2
20260902155801 75 284 3.5 8.7 0.00 0.00 0.00 47 1018.2
20260902155732 75 208 3.5 8.7 0.00 0.00 0.00 47 1018.2
20260902155701 75 250 3.5 8.7 0.00 0.00 0.00 47 1018.3
20260902155601 75 238 3.5 8.7 0.00 0.00 0.00 47 1018.2
20260902155507 75 234 3.5 7.8 0.00 0.00 0.00 48 1018.2
20260902155501 75 275 3.5 8.7 0.00 0.00 0.00 48 1018.2
20260902155448 75 244 3.5 8.7 0.00 0.00 0.00 48 1018.2
20260902155444 75 236 3.5 8.7 0.00 0.00 0.00 48 1018.2
20260902155201 75 223 3.5 7.8 0.00 0.00 0.00 49 1018.2
20260902155100 75 267 3.5 7.8 0.00 0.00 0.00 49 1018.2
20260902155000 75 250 3.5 7.8 0.00 0.00 0.00 47 1018.2
20260902154900 75 270 3.5 7.8 0.00 0.00 0.00 47 1018.2
20260902154800 75 274 4.3 7.8 0.00 0.00 0.00 48 1018.2
20260902154729 75 279 4.3 7.8 0.00 0.00 0.00 48 1018.2
20260902154700 75 268 4.3 8.7 0.00 0.00 0.00 48 1018.2
20260902154600 75 279 4.3 10.4 0.00 0.00 0.00 47 1018.2
20260902154500 75 239 4.3 10.4 0.00 0.00 0.00 47 1018.2
20260902154400 75 276 5.2 10.4 0.00 0.00 0.00 47 1018.1
20260902154300 75 272 4.3 10.4 0.00 0.00 0.00 47 1018.1
20260902154228 75 269 4.3 10.4 0.00 0.00 0.00 47 1018.1
20260902154200 75 265 5.2 10.4 0.00 0.00 0.00 47 1018.1
20260902154100 75 272 5.2 10.4 0.00 0.00 0.00 47 1018.1
20260902154001 75 267 5.2 10.4 0.00 0.00 0.00 48 1018.1
20260902153901 75 199 5.2 10.4 0.00 0.00 0.00 47 1018.2
20260902153802 75 254 5.2 10.4 0.00 0.00 0.00 45 1018.2
20260902153729 75 225 5.2 10.4 0.00 0.00 0.00 45 1018.2
20260902153701 75 198 4.3 10.4 0.00 0.00 0.00 45 1018.2
20260902153600 75 188 4.3 9.6 0.00 0.00 0.00 45 1018.1
20260902153500 75 205 4.3 9.6 0.00 0.00 0.00 47 1018.1
20260902153359 75 238 4.3 9.6 0.00 0.00 0.00 47 1018.2
20260902153259 76 236 4.3 7.0 0.00 0.00 0.00 49 1018.2
20260902153229 76 203 4.3 7.0 0.00 0.00 0.00 49 1018.2
20260902153153 76 220 4.3 7.0 0.00 0.00 0.00 49 1018.1
20260902153054 76 216 4.3 7.0 0.00 0.00 0.00 48 1018.2
20260902152954 76 211 4.3 7.0 0.00 0.00 0.00 47 1018.2
20260902152854 76 200 4.3 7.0 0.00 0.00 0.00 47 1018.2
20260902152754 76 221 4.3 7.0 0.00 0.00 0.00 47 1018.2
20260902152728 76 226 4.3 7.8 0.00 0.00 0.00 47 1018.2
20260902152648 76 234 4.3 9.6 0.00 0.00 0.00 47 1018.2
20260902152548 76 242 4.3 9.6 0.00 0.00 0.00 46 1018.2
20260902152448 76 229 4.3 9.6 0.00 0.00 0.00 46 1018.3
20260902152348 76 219 4.3 9.6 0.00 0.00 0.00 46 1018.3
20260902152248 76 223 4.3 9.6 0.00 0.00 0.00 45 1018.3
20260902152230 76 213 4.3 9.6 0.00 0.00 0.00 45 1018.3
20260902152144 76 288 5.2 9.6 0.00 0.00 0.00 46 1018.3
20260902152044 76 254 5.2 9.6 0.00 0.00 0.00 46 1018.3
20260902151944 76 234 5.2 9.6 0.00 0.00 0.00 45 1018.3
20260902151844 76 252 5.2 9.6 0.00 0.00 0.00 46 1018.3
20260902151742 76 248 6.1 9.6 0.00 0.00 0.00 46 1018.4
20260902151728 76 229 6.1 9.6 0.00 0.00 0.00 46 1018.4
20260902151636 76 276 6.1 12.2 0.00 0.00 0.00 45 1018.3
20260902151536 76 269 6.1 12.2 0.00 0.00 0.00 44 1018.3
20260902151454 76 267 5.2 12.2 0.00 0.00 0.00 44 1018.4
20260902151448 76 285 6.1 12.2 0.00 0.00 0.00 44 1018.3
20260902151444 76 263 5.2 12.2 0.00 0.00 0.00 44 1018.3
20260902151440 76 259 5.2 12.2 0.00 0.00 0.00 44 1018.4
20260902151129 76 265 6.1 12.2 0.00 0.00 0.00 44 1018.3
20260902151030 76 258 5.2 12.2 0.00 0.00 0.00 45 1018.4
20260902150930 76 263 5.2 12.2 0.00 0.00 0.00 44 1018.4
20260902150829 76 229 5.2 12.2 0.00 0.00 0.00 44 1018.4
20260902150729 77 226 5.2 12.2 0.00 0.00 0.00 44 1018.4
20260902150630 77 210 5.2 9.6 0.00 0.00 0.00 44 1018.4
20260902150529 77 240 5.2 9.6 0.00 0.00 0.00 44 1018.4
20260902150429 77 231 4.3 9.6 0.00 0.00 0.00 44 1018.4
20260902150329 77 258 4.3 9.6 0.00 0.00 0.00 44 1018.4
20260902150229 77 258 4.3 9.6 0.00 0.00 0.00 44 1018.4
20260902150224 77 281 4.3 9.6 0.00 0.00 0.00 44 1018.4
20260902150129 77 279 4.3 8.7 0.00 0.00 0.00 43 1018.4
20260902150030 77 217 4.3 8.7 0.00 0.00 0.00 46 1018.4
20260902145929 77 251 4.3 8.7 0.00 0.00 0.00 46 1018.4
20260902145829 77 242 5.2 8.7 0.00 0.00 0.00 45 1018.4
20260902145729 77 239 5.2 8.7 0.00 0.00 0.00 45 1018.4
20260902145717 77 223 5.2 8.7 0.00 0.00 0.00 45 1018.4
20260902145629 77 225 5.2 8.7 0.00 0.00 0.00 44 1018.4
20260902145529 77 237 5.2 8.7 0.00 0.00 0.00 46 1018.4
20260902145429 77 219 5.2 8.7 0.00 0.00 0.00 44 1018.4
20260902145328 77 252 5.2 8.7 0.00 0.00 0.00 45 1018.3
20260902145228 77 249 5.2 8.7 0.00 0.00 0.00 45 1018.4
20260902145211 77 246 5.2 8.7 0.00 0.00 0.00 45 1018.4
20260902145129 77 262 5.2 8.7 0.00 0.00 0.00 45 1018.4
20260902145029 77 267 4.3 8.7 0.00 0.00 0.00 46 1018.3
20260902144925 77 215 4.3 8.7 0.00 0.00 0.00 46 1018.3
20260902144824 77 215 4.3 8.7 0.00 0.00 0.00 46 1018.3
20260902144724 77 221 4.3 8.7 0.00 0.00 0.00 47 1018.3
20260902144711 77 227 4.3 8.7 0.00 0.00 0.00 48 1018.3
20260902144624 77 288 4.3 8.7 0.00 0.00 0.00 48 1018.3
20260902144524 77 254 4.3 7.8 0.00 0.00 0.00 46 1018.3
20260902144440 77 214 4.3 8.7 0.00 0.00 0.00 47 1018.4
20260902144430 77 230 4.3 8.7 0.00 0.00 0.00 46 1018.4
20260902144425 77 212 4.3 8.7 0.00 0.00 0.00 48 1018.4
20260902144421 77 211 4.3 8.7 0.00 0.00 0.00 47 1018.4
20260902144118 77 195 4.3 8.7 0.00 0.00 0.00 47 1018.3
20260902144018 77 230 4.3 8.7 0.00 0.00 0.00 47 1018.4
20260902143938 77 222 4.3 8.7 0.00 0.00 0.00 48 1018.4
20260902143930 77 225 4.3 8.7 0.00 0.00 0.00 47 1018.4
20260902143926 77 248 4.3 8.7 0.00 0.00 0.00 47 1018.4
20260902143922 77 227 4.3 8.7 0.00 0.00 0.00 48 1018.4
20260902143612 77 221 4.3 8.7 0.00 0.00 0.00 48 1018.4
20260902143511 77 227 4.3 8.7 0.00 0.00 0.00 48 1018.4
20260902143406 77 234 4.3 9.6 0.00 0.00 0.00 47 1018.4
20260902143306 77 213 5.2 9.6 0.00 0.00 0.00 46 1018.4
20260902143210 77 237 5.2 9.6 0.00 0.00 0.00 45 1018.4
20260902143206 77 242 5.2 9.6 0.00 0.00 0.00 45 1018.4
20260902143143 77 265 4.3 12.2 0.00 0.00 0.00 46 1018.4
20260902143139 78 196 6.1 12.2 0.00 0.00 0.00 46 1018.4
20260902143135 77 221 5.2 9.6 0.00 0.00 0.00 45 1018.4
20260902143131 77 224 6.1 9.6 0.00 0.00 0.00 44 1018.4
20260902143127 77 217 6.1 10.4 0.00 0.00 0.00 44 1018.4
20260902143123 77 215 6.1 12.2 0.00 0.00 0.00 45 1018.4
20260902142906 77 213 6.1 12.2 0.00 0.00 0.00 46 1018.4
20260902142647 77 324 6.1 12.2 0.00 0.00 0.00 45 1018.4
20260902142643 77 274 6.1 12.2 0.00 0.00 0.00 46 1018.5
20260902142425 77 202 5.2 12.2 0.00 0.00 0.00 47 1018.5
20260902142421 77 258 5.2 12.2 0.00 0.00 0.00 47 1018.5
20260902142204 77 261 4.3 12.2 0.00 0.00 0.00 46 1018.4
20260902142104 77 257 4.3 12.2 0.00 0.00 0.00 47 1018.4
20260902142002 77 261 3.5 12.2 0.00 0.00 0.00 46 1018.5
20260902141902 77 240 3.5 12.2 0.00 0.00 0.00 47 1018.4
20260902141802 77 221 3.5 11.3 0.00 0.00 0.00 47 1018.4
20260902141711 77 225 3.5 7.0 0.00 0.00 0.00 47 1018.4
20260902141702 77 209 3.5 7.0 0.00 0.00 0.00 47 1018.4
20260902141602 77 255 3.5 7.0 0.00 0.00 0.00 46 1018.4
20260902141502 77 245 3.5 7.8 0.00 0.00 0.00 46 1018.4
20260902141431 77 265 4.3 7.8 0.00 0.00 0.00 46 1018.4
20260902141425 77 246 3.5 7.8 0.00 0.00 0.00 45 1018.4
20260902141421 77 213 3.5 7.8 0.00 0.00 0.00 46 1018.4
20260902141201 77 248 4.3 7.8 0.00 0.00 0.00 46 1018.4
20260902141101 77 244 4.3 7.8 0.00 0.00 0.00 46 1018.5
20260902141001 77 194 5.2 10.4 0.00 0.00 0.00 45 1018.5
20260902140901 77 244 5.2 10.4 0.00 0.00 0.00 45 1018.5
20260902140801 77 240 5.2 10.4 0.00 0.00 0.00 46 1018.5
20260902140710 77 278 5.2 10.4 0.00 0.00 0.00 45 1018.5
20260902140701 77 274 5.2 10.4 0.00 0.00 0.00 45 1018.5
20260902140601 77 249 5.2 10.4 0.00 0.00 0.00 45 1018.5
20260902140501 77 251 5.2 10.4 0.00 0.00 0.00 45 1018.5
20260902140432 78 277 5.2 10.4 0.00 0.00 0.00 45 1018.5
20260902140425 77 268 5.2 10.4 0.00 0.00 0.00 47 1018.5
20260902140421 78 221 5.2 10.4 0.00 0.00 0.00 45 1018.5
20260902140201 78 295 5.2 10.4 0.00 0.00 0.00 46 1018.5
20260902140001 78 269 4.3 9.6 0.00 0.00 0.00 47 1018.5
20260902135901 78 193 4.3 8.7 0.00 0.00 0.00 47 1018.6
20260902135801 77 230 4.3 8.7 0.00 0.00 0.00 46 1018.6
20260902135710 77 226 5.2 8.7 0.00 0.00 0.00 47 1018.5
20260902135703 77 200 5.2 8.7 0.00 0.00 0.00 47 1018.5
20260902135659 76 260 5.2 9.6 0.00 0.00 0.00 48 1018.6
20260902135644 77 266 5.2 9.6 0.00 0.00 0.00 47 1018.5
20260902135640 77 291 5.2 9.6 0.00 0.00 0.00 46 1018.5
20260902135425 77 300 5.2 9.6 0.00 0.00 0.00 48 1018.5
20260902135421 77 242 5.2 9.6 0.00 0.00 0.00 48 1018.6
20260902135158 76 235 5.2 9.6 0.00 0.00 0.00 48 1018.6
20260902135057 76 250 4.3 9.6 0.00 0.00 0.00 49 1018.6
20260902134954 76 232 4.3 9.6 0.00 0.00 0.00 48 1018.6
20260902134855 76 319 4.3 9.6 0.00 0.00 0.00 48 1018.6
20260902134754 76 290 4.3 9.6 0.00 0.00 0.00 48 1018.6
20260902134710 76 263 4.3 9.6 0.00 0.00 0.00 47 1018.7
20260902134654 76 236 4.3 9.6 0.00 0.00 0.00 47 1018.7
20260902134552 76 273 4.3 8.7 0.00 0.00 0.00 47 1018.6
20260902134450 76 239 4.3 8.7 0.00 0.00 0.00 46 1018.6
20260902134350 76 269 4.3 8.7 0.00 0.00 0.00 47 1018.6
20260902134250 76 256 4.3 8.7 0.00 0.00 0.00 47 1018.6
20260902134208 76 324 4.3 8.7 0.00 0.00 0.00 47 1018.6
20260902134147 77 319 4.3 8.7 0.00 0.00 0.00 47 1018.6
20260902134046 77 273 4.3 8.7 0.00 0.00 0.00 46 1018.6
20260902133941 77 262 4.3 8.7 0.00 0.00 0.00 47 1018.7
20260902133929 77 263 3.5 8.7 0.00 0.00 0.00 48 1018.6
20260902133922 77 279 4.3 8.7 0.00 0.00 0.00 47 1018.6
20260902133918 77 281 3.5 8.7 0.00 0.00 0.00 47 1018.6
20260902133642 77 278 3.5 8.7 0.00 0.00 0.00 48 1018.6
20260902133542 77 284 3.5 8.7 0.00 0.00 0.00 48 1018.7
20260902133442 77 270 3.5 7.8 0.00 0.00 0.00 51 1018.7
20260902133342 77 273 4.3 9.6 0.00 0.00 0.00 51 1018.6
20260902133242 76 286 4.3 9.6 0.00 0.00 0.00 51 1018.7
20260902133208 76 252 4.3 9.6 0.00 0.00 0.00 51 1018.6
20260902133140 76 241 4.3 9.6 0.00 0.00 0.00 49 1018.6
20260902133039 76 233 5.2 9.6 0.00 0.00 0.00 50 1018.7
20260902132939 76 277 5.2 9.6 0.00 0.00 0.00 50 1018.7
20260902132935 76 287 6.1 10.4 0.00 0.00 0.00 48 1018.7
20260902132924 76 296 6.1 9.6 0.00 0.00 0.00 48 1018.7
20260902132920 76 273 6.1 10.4 0.00 0.00 0.00 48 1018.7
20260902132635 76 273 6.1 10.4 0.00 0.00 0.00 48 1018.7
20260902132534 76 256 6.1 10.4 0.00 0.00 0.00 48 1018.7
20260902132434 76 224 5.2 10.4 0.00 0.00 0.00 47 1018.8
20260902132333 77 308 5.2 10.4 0.00 0.00 0.00 47 1018.7
20260902132233 77 257 5.2 10.4 0.00 0.00 0.00 47 1018.7
20260902132208 77 279 4.3 10.4 0.00 0.00 0.00 47 1018.7
20260902132134 77 262 4.3 10.4 0.00 0.00 0.00 47 1018.7
20260902132033 77 269 4.3 10.4 0.00 0.00 0.00 47 1018.7
20260902131933 77 221 3.5 10.4 0.00 0.00 0.00 47 1018.8
20260902131833 77 248 3.5 10.4 0.00 0.00 0.00 48 1018.7
20260902131732 77 251 2.6 7.0 0.00 0.00 0.00 49 1018.7
20260902131705 77 273 2.6 7.0 0.00 0.00 0.00 49 1018.7
20260902131632 77 276 2.6 6.1 0.00 0.00 0.00 49 1018.7
20260902131532 77 261 2.6 6.1 0.00 0.00 0.00 49 1018.7
20260902131430 77 296 2.6 6.1 0.00 0.00 0.00 49 1018.7
20260902131329 77 273 2.6 7.8 0.00 0.00 0.00 49 1018.7
20260902131230 77 232 2.6 7.8 0.00 0.00 0.00 49 1018.7
20260902131205 77 305 3.5 7.8 0.00 0.00 0.00 50 1018.7
20260902131129 77 306 3.5 7.8 0.00 0.00 0.00 50 1018.7
20260902131029 77 238 3.5 7.8 0.00 0.00 0.00 49 1018.6
20260902130929 77 236 3.5 7.8 0.00 0.00 0.00 49 1018.7
20260902130830 77 236 4.3 7.8 0.00 0.00 0.00 49 1018.6
20260902130729 77 234 4.3 7.8 0.00 0.00 0.00 49 1018.7
20260902130706 77 239 5.2 7.8 0.00 0.00 0.00 49 1018.7
20260902130629 77 241 5.2 8.7 0.00 0.00 0.00 49 1018.7
20260902130529 77 242 5.2 8.7 0.00 0.00 0.00 50 1018.7
20260902130429 77 234 6.1 8.7 0.00 0.00 0.00 49 1018.7
20260902130329 77 257 6.1 8.7 0.00 0.00 0.00 49 1018.7
20260902130229 77 257 6.1 8.7 0.00 0.00 0.00 49 1018.8
20260902130203 77 254 5.2 8.7 0.00 0.00 0.00 49 1018.7
20260902130129 77 315 5.2 8.7 0.00 0.00 0.00 49 1018.7
20260902130029 77 267 5.2 8.7 0.00 0.00 0.00 48 1018.8
20260902125929 77 248 5.2 8.7 0.00 0.00 0.00 48 1018.8
20260902125828 77 257 5.2 8.7 0.00 0.00 0.00 48 1018.8
20260902125728 77 249 5.2 8.7 0.00 0.00 0.00 48 1018.7
20260902125704 77 263 5.2 8.7 0.00 0.00 0.00 49 1018.7
20260902125629 77 250 5.2 9.6 0.00 0.00 0.00 49 1018.7
20260902125529 77 269 4.3 9.6 0.00 0.00 0.00 48 1018.8
20260902125429 77 282 4.3 9.6 0.00 0.00 0.00 50 1018.7
20260902125329 77 263 4.3 9.6 0.00 0.00 0.00 49 1018.7
20260902125229 77 254 4.3 9.6 0.00 0.00 0.00 51 1018.7
20260902125203 77 259 4.3 9.6 0.00 0.00 0.00 51 1018.8
20260902125130 77 254 4.3 9.6 0.00 0.00 0.00 50 1018.8
20260902125029 77 212 4.3 9.6 0.00 0.00 0.00 47 1018.8
20260902124929 77 219 4.3 9.6 0.00 0.00 0.00 49 1018.8
20260902124824 77 215 4.3 9.6 0.00 0.00 0.00 50 1018.8
20260902124723 77 238 4.3 9.6 0.00 0.00 0.00 50 1018.8
20260902124703 77 252 4.3 9.6 0.00 0.00 0.00 50 1018.8
20260902124623 77 221 4.3 8.7 0.00 0.00 0.00 50 1018.8
20260902124522 76 271 4.3 8.7 0.00 0.00 0.00 51 1018.8
20260902124421 76 261 4.3 8.7 0.00 0.00 0.00 52 1018.8
20260902124321 76 260 4.3 8.7 0.00 0.00 0.00 50 1018.8
20260902124204 76 223 4.3 8.7 0.00 0.00 0.00 51 1018.8
20260902124121 76 232 4.3 8.7 0.00 0.00 0.00 51 1018.8
20260902124019 76 236 4.3 8.7 0.00 0.00 0.00 50 1018.8
20260902123920 76 240 4.3 8.7 0.00 0.00 0.00 51 1018.8
20260902123820 76 269 4.3 8.7 0.00 0.00 0.00 51 1018.9
20260902123720 76 254 3.5 7.8 0.00 0.00 0.00 52 1018.8
20260902123703 76 265 3.5 7.0 0.00 0.00 0.00 52 1018.8
20260902123620 76 318 3.5 7.0 0.00 0.00 0.00 53 1018.8
20260902123520 75 329 3.5 7.0 0.00 0.00 0.00 53 1018.8
20260902123429 76 244 3.5 8.7 0.00 0.00 0.00 53 1018.9
20260902123422 75 311 3.5 7.0 0.00 0.00 0.00 52 1018.8
20260902123418 75 309 3.5 7.0 0.00 0.00 0.00 53 1018.9
20260902123416 76 279 3.5 8.7 0.00 0.00 0.00 52 1018.9
20260902123119 76 259 3.5 8.7 0.00 0.00 0.00 52 1018.8
20260902123020 76 301 3.5 8.7 0.00 0.00 0.00 52 1018.9
20260902122920 76 281 3.5 8.7 0.00 0.00 0.00 52 1018.8
20260902122820 76 288 3.5 8.7 0.00 0.00 0.00 52 1018.9
20260902122720 76 263 2.6 8.7 0.00 0.00 0.00 52 1018.9
20260902122703 76 300 2.6 8.7 0.00 0.00 0.00 52 1018.9
20260902122619 76 298 3.5 8.7 0.00 0.00 0.00 53 1018.9
20260902122520 76 309 3.5 8.7 0.00 0.00 0.00 52 1019.0
20260902122415 76 305 3.5 8.7 0.00 0.00 0.00 54 1019.0
20260902122315 76 299 4.3 8.7 0.00 0.00 0.00 53 1019.0
20260902122215 75 262 4.3 10.4 0.00 0.00 0.00 52 1019.0
20260902122204 75 261 4.3 10.4 0.00 0.00 0.00 55 1019.0
20260902122115 75 202 4.3 10.4 0.00 0.00 0.00 55 1019.0
20260902122015 75 209 4.3 10.4 0.00 0.00 0.00 54 1019.1
20260902121915 75 286 5.2 10.4 0.00 0.00 0.00 54 1019.0
20260902121815 75 281 5.2 10.4 0.00 0.00 0.00 53 1019.1
20260902121715 75 272 5.2 10.4 0.00 0.00 0.00 53 1019.1
20260902121704 75 273 5.2 10.4 0.00 0.00 0.00 53 1019.1
20260902121656 75 249 3.5 7.8 0.00 0.00 0.00 55 1019.1
20260902121652 75 268 4.3 10.4 0.00 0.00 0.00 54 1019.1
20260902121644 75 270 4.3 10.4 0.00 0.00 0.00 54 1019.1
20260902121422 75 259 4.3 10.4 0.00 0.00 0.00 55 1019.1
20260902121418 75 276 3.5 10.4 0.00 0.00 0.00 55 1019.2
20260902121414 75 254 3.5 7.8 0.00 0.00 0.00 55 1019.1
20260902121115 75 330 3.5 7.8 0.00 0.00 0.00 54 1019.2
20260902121015 75 310 3.5 7.8 0.00 0.00 0.00 54 1019.1
20260902120931 75 278 4.3 10.4 0.00 0.00 0.00 55 1019.3
20260902120923 75 298 4.3 7.8 0.00 0.00 0.00 54 1019.2
20260902120919 75 303 4.3 10.4 0.00 0.00 0.00 54 1019.3
20260902120915 75 279 4.3 10.4 0.00 0.00 0.00 55 1019.3
20260902120615 75 277 4.3 10.4 0.00 0.00 0.00 53 1019.3
20260902120511 75 309 4.3 10.4 0.00 0.00 0.00 53 1019.3
20260902120411 75 289 4.3 10.4 0.00 0.00 0.00 53 1019.3
20260902120311 75 248 4.3 10.4 0.00 0.00 0.00 53 1019.3
20260902120211 75 245 5.2 10.4 0.00 0.00 0.00 52 1019.3
20260902120204 75 256 5.2 10.4 0.00 0.00 0.00 52 1019.3
20260902120112 75 290 5.2 10.4 0.00 0.00 0.00 52 1019.4
20260902120011 75 252 4.3 10.4 0.00 0.00 0.00 52 1019.4
20260902115911 75 273 4.3 10.4 0.00 0.00 0.00 53 1019.5
20260902115812 75 255 5.2 8.7 0.00 0.00 0.00 54 1019.4
20260902115712 75 288 5.2 9.6 0.00 0.00 0.00 54 1019.4
20260902115704 75 285 5.2 9.6 0.00 0.00 0.00 54 1019.4
20260902115612 75 265 5.2 9.6 0.00 0.00 0.00 54 1019.4
20260902115512 75 267 6.1 9.6 0.00 0.00 0.00 53 1019.4
20260902115412 75 252 5.2 9.6 0.00 0.00 0.00 52 1019.4
20260902115312 75 281 5.2 9.6 0.00 0.00 0.00 53 1019.3
20260902115212 75 297 6.1 9.6 0.00 0.00 0.00 52 1019.3
20260902115203 75 298 6.1 9.6 0.00 0.00 0.00 52 1019.3
20260902115111 75 333 6.1 9.6 0.00 0.00 0.00 53 1019.4
20260902115011 75 310 6.1 9.6 0.00 0.00 0.00 52 1019.3
20260902114911 75 304 6.1 9.6 0.00 0.00 0.00 53 1019.4
20260902114811 75 303 5.2 9.6 0.00 0.00 0.00 54 1019.4
20260902114712 75 319 5.2 9.6 0.00 0.00 0.00 55 1019.4
20260902114704 75 320 5.2 9.6 0.00 0.00 0.00 55 1019.4
20260902114608 75 306 4.3 9.6 0.00 0.00 0.00 53 1019.3
20260902114507 75 277 4.3 9.6 0.00 0.00 0.00 53 1019.4
20260902114427 75 265 3.5 8.7 0.00 0.00 0.00 55 1019.4
20260902114422 75 281 4.3 9.6 0.00 0.00 0.00 53 1019.3
20260902114418 75 281 3.5 9.6 0.00 0.00 0.00 53 1019.3
20260902114414 75 263 3.5 8.7 0.00 0.00 0.00 55 1019.4
20260902114107 75 275 3.5 8.7 0.00 0.00 0.00 54 1019.3
20260902114007 75 257 3.5 7.8 0.00 0.00 0.00 57 1019.3
20260902113907 74 257 2.6 7.8 0.00 0.00 0.00 56 1019.4
20260902113807 74 269 2.6 7.0 0.00 0.00 0.00 55 1019.4
20260902113708 74 240 2.6 5.2 0.00 0.00 0.00 54 1019.3
20260902113704 74 264 2.6 5.2 0.00 0.00 0.00 54 1019.3
20260902113608 74 44 2.6 5.2 0.00 0.00 0.00 53 1019.3
20260902113507 74 290 2.6 5.2 0.00 0.00 0.00 55 1019.3
20260902113422 74 271 2.6 5.2 0.00 0.00 0.00 55 1019.4
20260902113418 74 275 2.6 5.2 0.00 0.00 0.00 55 1019.3
20260902113414 74 252 2.6 5.2 0.00 0.00 0.00 56 1019.3
20260902113107 74 272 2.6 5.2 0.00 0.00 0.00 56 1019.3
20260902113008 74 340 2.6 4.3 0.00 0.00 0.00 57 1019.3
20260902112908 73 311 2.6 6.1 0.00 0.00 0.00 56 1019.4
20260902112807 73 217 2.6 6.1 0.00 0.00 0.00 56 1019.4
20260902112703 73 254 2.6 6.1 0.00 0.00 0.00 55 1019.4
20260902112603 73 311 2.6 6.1 0.00 0.00 0.00 57 1019.4
20260902112503 73 263 2.6 6.1 0.00 0.00 0.00 55 1019.4
20260902112403 73 269 2.6 6.1 0.00 0.00 0.00 56 1019.4
20260902112305 73 249 2.6 6.1 0.00 0.00 0.00 58 1019.4
20260902112204 73 248 2.6 6.1 0.00 0.00 0.00 58 1019.4
20260902112103 73 249 2.6 6.1 0.00 0.00 0.00 58 1019.4
20260902112001 73 210 2.6 6.1 0.00 0.00 0.00 56 1019.4
20260902111901 73 203 2.6 6.1 0.00 0.00 0.00 57 1019.4
20260902111801 72 208 2.6 6.1 0.00 0.00 0.00 58 1019.4
20260902111701 72 217 1.7 6.1 0.00 0.00 0.00 60 1019.4
20260902111601 72 246 1.7 5.2 0.00 0.00 0.00 61 1019.5
20260902111501 72 286 1.7 5.2 0.00 0.00 0.00 61 1019.4
20260902111401 72 259 1.7 5.2 0.00 0.00 0.00 60 1019.5
20260902111301 72 177 1.7 5.2 0.00 0.00 0.00 61 1019.4
20260902111201 72 177 1.7 5.2 0.00 0.00 0.00 59 1019.4
20260902111102 72 151 1.7 5.2 0.00 0.00 0.00 59 1019.4
20260902111001 72 202 1.7 5.2 0.00 0.00 0.00 59 1019.4
20260902110921 72 230 0.9 4.3 0.00 0.00 0.00 63 1019.5
20260902110917 72 202 1.7 5.2 0.00 0.00 0.00 59 1019.5
20260902110913 72 230 0.9 4.3 0.00 0.00 0.00 60 1019.5
20260902110651 72 230 0.9 4.3 0.00 0.00 0.00 61 1019.5
20260902110550 72 244 0.9 3.5 0.00 0.00 0.00 62 1019.5
20260902110447 72 243 0.9 3.5 0.00 0.00 0.00 65 1019.4
20260902110345 72 39 0.9 2.6 0.00 0.00 0.00 63 1019.5
20260902110244 72 39 0.9 2.6 0.00 0.00 0.00 63 1019.5
20260902110201 72 39 0.9 2.6 0.00 0.00 0.00 63 1019.5
20260902110143 72 39 0.9 2.6 0.00 0.00 0.00 65 1019.5
20260902110043 72 294 0.9 3.5 0.00 0.00 0.00 64 1019.5
20260902105941 72 294 1.7 4.3 0.00 0.00 0.00 64 1019.7
20260902105920 71 319 1.7 5.2 0.00 0.00 0.00 64 1019.7
20260902105915 71 319 1.7 5.2 0.00 0.00 0.00 64 1019.5
20260902105911 71 319 1.7 5.2 0.00 0.00 0.00 62 1019.7
20260902105638 71 319 1.7 5.2 0.00 0.00 0.00 66 1019.7
20260902105538 71 319 1.7 5.2 0.00 0.00 0.00 65 1019.7
20260902105436 71 319 1.7 5.2 0.00 0.00 0.00 64 1019.7
20260902105334 71 319 1.7 5.2 0.00 0.00 0.00 64 1019.7
20260902105231 71 319 1.7 5.2 0.00 0.00 0.00 64 1019.7
20260902105201 71 319 1.7 5.2 0.00 0.00 0.00 64 1019.8
20260902105131 71 319 1.7 5.2 0.00 0.00 0.00 64 1019.8
20260902105031 71 319 1.7 5.2 0.00 0.00 0.00 63 1019.7
20260902104931 71 331 1.7 5.2 0.00 0.00 0.00 63 1019.7
20260902104829 71 318 0.9 4.3 0.00 0.00 0.00 65 1019.8
20260902104729 71 318 1.7 4.3 0.00 0.00 0.00 64 1019.8
20260902104700 71 318 1.7 4.3 0.00 0.00 0.00 66 1019.8
20260902104630 71 318 1.7 4.3 0.00 0.00 0.00 66 1019.8
20260902104530 71 319 1.7 4.3 0.00 0.00 0.00 64 1019.8
20260902104430 71 321 1.7 4.3 0.00 0.00 0.00 65 1019.7
20260902104329 71 316 1.7 4.3 0.00 0.00 0.00 64 1019.8
20260902104229 71 302 0.9 4.3 0.00 0.00 0.00 65 1019.8
20260902104201 71 0 1.7 4.3 0.00 0.00 0.00 66 1019.8
20260902104129 71 0 1.7 4.3 0.00 0.00 0.00 66 1019.8
20260902104029 71 0 1.7 4.3 0.00 0.00 0.00 65 1019.8
20260902103929 71 0 1.7 4.3 0.00 0.00 0.00 64 1019.8
20260902103828 71 0 2.6 4.3 0.00 0.00 0.00 65 1019.9
20260902103723 71 5 2.6 4.3 0.00 0.00 0.00 65 1019.9
20260902103701 71 5 2.6 4.3 0.00 0.00 0.00 65 1019.8
20260902103623 71 5 2.6 4.3 0.00 0.00 0.00 65 1019.8
20260902103524 71 13 1.7 4.3 0.00 0.00 0.00 66 1019.8
20260902103423 71 13 1.7 4.3 0.00 0.00 0.00 65 1019.8
20260902103323 71 330 1.7 4.3 0.00 0.00 0.00 64 1019.9
20260902103204 71 330 1.7 4.3 0.00 0.00 0.00 65 1019.8
20260902103200 71 325 1.7 4.3 0.00 0.00 0.00 65 1020.0
20260902103150 71 330 1.7 4.3 0.00 0.00 0.00 66 1019.9
20260902103146 71 338 1.7 4.3 0.00 0.00 0.00 65 1019.9
20260902102921 71 355 1.7 4.3 0.00 0.00 0.00 65 1019.9
20260902102917 71 319 1.7 4.3 0.00 0.00 0.00 65 1019.9
20260902102913 71 319 1.7 4.3 0.00 0.00 0.00 65 1020.0
20260902102611 70 325 1.7 4.3 0.00 0.00 0.00 65 1019.9
20260902102512 70 325 1.7 4.3 0.00 0.00 0.00 65 1020.0
20260902102411 70 336 1.7 4.3 0.00 0.00 0.00 64 1020.0
20260902102311 70 337 1.7 4.3 0.00 0.00 0.00 66 1020.0
20260902102200 70 336 1.7 4.3 0.00 0.00 0.00 67 1020.0
20260902102105 70 319 1.7 4.3 0.00 0.00 0.00 67 1020.0
20260902102005 70 304 1.7 4.3 0.00 0.00 0.00 67 1020.0
20260902101903 70 272 1.7 4.3 0.00 0.00 0.00 66 1020.0
20260902101801 70 309 1.7 4.3 0.00 0.00 0.00 65 1020.0
20260902101701 70 309 1.7 4.3 0.00 0.00 0.00 66 1020.0
20260902101601 70 308 1.7 4.3 0.00 0.00 0.00 66 1020.0
20260902101502 70 308 1.7 4.3 0.00 0.00 0.00 67 1020.0
20260902101401 70 308 1.7 4.3 0.00 0.00 0.00 67 1020.0
20260902101301 70 308 1.7 4.3 0.00 0.00 0.00 67 1020.0
20260902101201 70 296 1.7 4.3 0.00 0.00 0.00 68 1020.0
20260902101102 69 297 1.7 4.3 0.00 0.00 0.00 68 1020.0
20260902101001 69 297 1.7 3.5 0.00 0.00 0.00 67 1020.1
20260902100922 69 303 0.9 3.5 0.00 0.00 0.00 67 1020.1
20260902100917 69 301 1.7 3.5 0.00 0.00 0.00 67 1020.0
20260902100913 69 301 0.9 3.5 0.00 0.00 0.00 68 1020.0
20260902100904 69 301 0.9 3.5 0.00 0.00 0.00 67 1020.0
20260902100644 69 301 0.9 3.5 0.00 0.00 0.00 67 1020.0
20260902100640 69 301 0.9 3.5 0.00 0.00 0.00 67 1020.0
20260902100420 69 300 0.9 3.5 0.00 0.00 0.00 67 1020.0
20260902100415 69 303 0.9 3.5 0.00 0.00 0.00 67 1020.1
20260902100411 69 303 0.9 3.5 0.00 0.00 0.00 67 1020.1
20260902100101 69 294 0.9 2.6 0.00 0.00 0.00 68 1020.1
20260902100001 69 294 1.7 3.5 0.00 0.00 0.00 66 1020.1
20260902095901 69 294 1.7 3.5 0.00 0.00 0.00 66 1020.1
20260902095801 69 294 1.7 3.5 0.00 0.00 0.00 66 1020.1
20260902095701 69 294 1.7 3.5 0.00 0.00 0.00 68 1020.1
20260902095601 69 294 1.7 3.5 0.00 0.00 0.00 67 1020.0
20260902095500 69 291 1.7 3.5 0.00 0.00 0.00 68 1020.1
20260902095427 69 325 1.7 3.5 0.00 0.00 0.00 68 1020.1
20260902095419 69 291 1.7 3.5 0.00 0.00 0.00 67 1020.0
20260902095415 69 316 1.7 3.5 0.00 0.00 0.00 66 1020.1
20260902095159 69 325 1.7 3.5 0.00 0.00 0.00 68 1020.1
20260902095059 69 325 1.7 3.5 0.00 0.00 0.00 68 1020.1
20260902094959 69 315 1.7 3.5 0.00 0.00 0.00 67 1020.1
20260902094859 69 318 0.9 3.5 0.00 0.00 0.00 67 1020.1
20260902094757 69 21 0.9 3.5 0.00 0.00 0.00 68 1020.1
20260902094701 69 21 1.7 3.5 0.00 0.00 0.00 67 1020.1
20260902094657 69 21 1.7 3.5 0.00 0.00 0.00 67 1020.1
20260902094557 69 21 1.7 3.5 0.00 0.00 0.00 67 1020.1
20260902094454 69 21 1.7 3.5 0.00 0.00 0.00 67 1020.1
20260902094353 68 20 1.7 3.5 0.00 0.00 0.00 66 1020.1
20260902094252 68 20 1.7 3.5 0.00 0.00 0.00 66 1020.1
20260902094202 68 346 0.9 3.5 0.00 0.00 0.00 67 1020.1
20260902094151 68 346 0.9 3.5 0.00 0.00 0.00 67 1020.1
20260902094049 68 329 0.9 3.5 0.00 0.00 0.00 68 1020.1
20260902093949 68 329 0.9 3.5 0.00 0.00 0.00 69 1020.1
20260902093847 68 307 0.9 3.5 0.00 0.00 0.00 69 1020.1
20260902093747 68 307 0.9 3.5 0.00 0.00 0.00 69 1020.1
20260902093701 68 307 0.9 3.5 0.00 0.00 0.00 69 1020.2
20260902093645 68 307 0.9 3.5 0.00 0.00 0.00 69 1020.2
20260902093545 68 306 0.9 2.6 0.00 0.00 0.00 69 1020.1
20260902093444 68 307 0.9 2.6 0.00 0.00 0.00 69 1020.1
20260902093415 68 307 0.9 2.6 0.00 0.00 0.00 69 1020.1
20260902093411 68 307 0.9 2.6 0.00 0.00 0.00 69 1020.1
20260902093139 68 307 0.9 2.6 0.00 0.00 0.00 69 1020.1
20260902093037 68 307 0.9 2.6 0.00 0.00 0.00 69 1020.1
20260902092937 68 307 0.9 2.6 0.00 0.00 0.00 69 1020.1
20260902092835 68 307 0.9 2.6 0.00 0.00 0.00 68 1020.1
20260902092735 68 307 0.9 2.6 0.00 0.00 0.00 67 1020.2
20260902092701 68 307 0.9 2.6 0.00 0.00 0.00 67 1020.2
20260902092633 68 307 0.9 2.6 0.00 0.00 0.00 67 1020.2
20260902092531 68 307 0.9 2.6 0.00 0.00 0.00 68 1020.2
20260902092431 68 307 0.9 2.6 0.00 0.00 0.00 68 1020.2
20260902092331 68 307 0.9 2.6 0.00 0.00 0.00 68 1020.2
20260902092231 68 308 0.9 2.6 0.00 0.00 0.00 69 1020.2
20260902092200 68 308 0.9 2.6 0.00 0.00 0.00 69 1020.1
20260902092132 68 307 0.9 2.6 0.00 0.00 0.00 69 1020.1
20260902092031 68 307 0.9 2.6 0.00 0.00 0.00 70 1020.1
20260902091931 68 307 0.9 2.6 0.00 0.00 0.00 70 1020.1
20260902091829 68 307 0.9 2.6 0.00 0.00 0.00 71 1020.1
20260902091702 68 308 0.9 2.6 0.00 0.00 0.00 71 1020.1
20260902091629 68 308 0.9 2.6 0.00 0.00 0.00 71 1020.1
20260902091529 67 308 0.9 2.6 0.00 0.00 0.00 72 1020.2
20260902091429 67 308 0.9 2.6 0.00 0.00 0.00 70 1020.2
20260902091328 67 308 0.9 2.6 0.00 0.00 0.00 72 1020.2
20260902091229 67 308 0.9 2.6 0.00 0.00 0.00 72 1020.2
20260902091201 67 308 0.9 2.6 0.00 0.00 0.00 71 1020.2
20260902091129 67 308 0.9 2.6 0.00 0.00 0.00 71 1020.2
20260902091029 67 308 0.9 2.6 0.00 0.00 0.00 73 1020.2
20260902090929 67 308 0.9 2.6 0.00 0.00 0.00 72 1020.2
20260902090829 67 308 0.9 2.6 0.00 0.00 0.00 72 1020.2
20260902090729 67 308 0.9 2.6 0.00 0.00 0.00 71 1020.2
20260902090701 67 307 0.9 2.6 0.00 0.00 0.00 72 1020.2
20260902090629 67 308 0.9 2.6 0.00 0.00 0.00 72 1020.2
20260902090529 67 307 0.9 2.6 0.00 0.00 0.00 73 1020.2
20260902090433 67 307 0.9 2.6 0.00 0.00 0.00 72 1020.1
20260902090329 67 307 1.7 2.6 0.00 0.00 0.00 73 1020.1
20260902090201 67 307 1.7 2.6 0.00 0.00 0.00 73 1020.2
20260902090129 67 310 1.7 2.6 0.00 0.00 0.00 73 1020.2
20260902090028 67 311 1.7 2.6 0.00 0.00 0.00 73 1020.2
20260902085928 67 312 0.9 2.6 0.00 0.00 0.00 73 1020.1
20260902085829 67 312 0.9 2.6 0.00 0.00 0.00 73 1020.1
20260902085701 67 312 0.9 2.6 0.00 0.00 0.00 72 1020.1
20260902085628 67 311 0.9 2.6 0.00 0.00 0.00 72 1020.1
20260902085528 67 311 0.9 2.6 0.00 0.00 0.00 72 1020.1
20260902085428 67 311 0.9 2.6 0.00 0.00 0.00 73 1020.0
20260902085328 67 312 0.9 2.6 0.00 0.00 0.00 74 1020.1
20260902085201 66 311 0.0 2.6 0.00 0.00 0.00 73 1020.0
20260902085128 66 312 0.0 2.6 0.00 0.00 0.00 73 1020.0
20260902085028 66 312 0.0 0.9 0.00 0.00 0.00 75 1020.0
20260902084929 66 312 0.0 0.9 0.00 0.00 0.00 74 1020.1
20260902084829 66 311 0.0 1.7 0.00 0.00 0.00 72 1020.1
20260902084729 66 312 0.0 1.7 0.00 0.00 0.00 73 1020.1
20260902084702 66 312 0.9 2.6 0.00 0.00 0.00 73 1020.1
20260902084629 66 312 0.9 2.6 0.00 0.00 0.00 74 1020.1
20260902084529 66 312 0.9 2.6 0.00 0.00 0.00 74 1020.1
20260902084429 66 312 0.9 3.5 0.00 0.00 0.00 75 1020.0
20260902084417 66 312 0.9 3.5 0.00 0.00 0.00 76 1020.0
20260902084413 66 312 0.9 3.5 0.00 0.00 0.00 74 1020.0
20260902084129 66 312 0.9 3.5 0.00 0.00 0.00 74 1020.0
20260902084029 66 312 0.9 3.5 0.00 0.00 0.00 75 1020.0
20260902083929 65 312 0.9 3.5 0.00 0.00 0.00 74 1020.1
20260902083823 65 312 0.9 3.5 0.00 0.00 0.00 74 1020.1
20260902083722 65 312 0.9 3.5 0.00 0.00 0.00 75 1020.1
20260902083701 65 311 0.9 3.5 0.00 0.00 0.00 75 1020.1
20260902083623 65 312 0.9 3.5 0.00 0.00 0.00 74 1020.1
20260902083523 65 311 0.9 3.5 0.00 0.00 0.00 74 1020.1
20260902083423 65 311 0.9 3.5 0.00 0.00 0.00 74 1020.1
20260902083415 65 311 1.7 3.5 0.00 0.00 0.00 74 1020.1
20260902083411 65 311 1.7 3.5 0.00 0.00 0.00 74 1020.1
20260902083117 65 311 1.7 3.5 0.00 0.00 0.00 74 1020.1
20260902083016 65 311 1.7 3.5 0.00 0.00 0.00 74 1020.1
20260902082916 65 311 1.7 3.5 0.00 0.00 0.00 74 1020.1
20260902082811 65 311 1.7 3.5 0.00 0.00 0.00 75 1020.1
20260902082711 65 311 1.7 3.5 0.00 0.00 0.00 75 1020.1
20260902082700 65 313 1.7 3.5 0.00 0.00 0.00 75 1020.1
20260902082611 65 313 0.9 3.5 0.00 0.00 0.00 75 1020.1
20260902082511 64 313 0.9 2.6 0.00 0.00 0.00 75 1020.1
20260902082411 64 211 0.9 2.6 0.00 0.00 0.00 76 1020.1
20260902082309 64 211 0.9 2.6 0.00 0.00 0.00 76 1020.1
20260902082201 64 210 0.9 2.6 0.00 0.00 0.00 76 1020.1
20260902082105 64 156 0.9 2.6 0.00 0.00 0.00 77 1020.1
20260902082002 64 154 0.9 2.6 0.00 0.00 0.00 77 1020.1
20260902081926 64 189 0.9 3.5 0.00 0.00 0.00 76 1020.1
20260902081918 64 189 0.9 3.5 0.00 0.00 0.00 76 1020.0
20260902081914 64 186 0.9 3.5 0.00 0.00 0.00 77 1020.0
20260902081601 64 186 0.9 3.5 0.00 0.00 0.00 78 1020.0
20260902081500 64 186 0.9 3.5 0.00 0.00 0.00 78 1020.0
20260902081402 63 186 0.9 3.5 0.00 0.00 0.00 77 1020.0
20260902081302 63 186 0.9 3.5 0.00 0.00 0.00 77 1020.0
20260902081200 63 186 0.9 3.5 0.00 0.00 0.00 77 1020.1
20260902081101 63 178 0.0 3.5 0.00 0.00 0.00 77 1020.0
20260902081001 63 178 0.0 3.5 0.00 0.00 0.00 79 1020.0
20260902080901 63 119 0.0 1.7 0.00 0.00 0.00 79 1020.0
20260902080801 63 119 0.0 1.7 0.00 0.00 0.00 79 1020.0
20260902080701 63 119 0.0 1.7 0.00 0.00 0.00 79 1020.0
20260902080601 62 119 0.0 1.7 0.00 0.00 0.00 80 1020.0
20260902080501 62 119 0.0 1.7 0.00 0.00 0.00 80 1019.9
20260902080401 62 119 0.0 1.7 0.00 0.00 0.00 80 1020.0
20260902080301 62 119 0.0 0.9 0.00 0.00 0.00 81 1019.9
20260902080201 62 119 0.0 3.5 0.00 0.00 0.00 81 1019.9
20260902080100 62 119 0.9 3.5 0.00 0.00 0.00 81 1019.9
20260902080000 62 119 0.9 3.5 0.00 0.00 0.00 81 1019.9
20260902075921 62 119 0.9 3.5 0.00 0.00 0.00 81 1019.8
20260902075914 62 119 0.9 3.5 0.00 0.00 0.00 81 1019.9
20260902075910 62 119 0.9 3.5 0.00 0.00 0.00 82 1019.8
20260902075558 62 119 0.9 3.5 0.00 0.00 0.00 82 1019.8
20260902075456 61 119 0.9 3.5 0.00 0.00 0.00 82 1019.8
20260902075357 61 119 0.9 3.5 0.00 0.00 0.00 82 1019.9
20260902075257 61 119 0.9 3.5 0.00 0.00 0.00 82 1019.8
20260902075152 61 119 0.0 2.6 0.00 0.00 0.00 82 1019.8
20260902075057 61 117 0.0 2.6 0.00 0.00 0.00 82 1019.8
20260902074955 61 116 0.0 1.7 0.00 0.00 0.00 81 1019.8
20260902074909 60 116 0.9 1.7 0.00 0.00 0.00 81 1019.8
20260902074901 60 115 0.9 1.7 0.00 0.00 0.00 81 1019.8
20260902074857 60 116 0.9 1.7 0.00 0.00 0.00 81 1019.8
20260902074555 60 116 0.9 1.7 0.00 0.00 0.00 81 1019.8
20260902074453 60 115 0.9 1.7 0.00 0.00 0.00 81 1019.8
20260902074404 60 115 0.0 1.7 0.00 0.00 0.00 82 1019.9
20260902074356 60 115 0.0 1.7 0.00 0.00 0.00 83 1019.9
20260902074352 60 115 0.0 1.7 0.00 0.00 0.00 82 1019.9
20260902074048 60 115 0.0 1.7 0.00 0.00 0.00 82 1019.9
20260902073947 59 115 0.0 1.7 0.00 0.00 0.00 82 1019.9
20260902073847 59 114 0.0 1.7 0.00 0.00 0.00 83 1019.9
20260902073745 59 114 0.0 1.7 0.00 0.00 0.00 84 1019.9
20260902073635 59 114 0.0 0.9 0.00 0.00 0.00 83 1019.9
20260902073545 59 114 0.0 0.9 0.00 0.00 0.00 84 1019.9
20260902073445 58 114 0.0 0.9 0.00 0.00 0.00 85 1019.9
20260902073343 58 113 0.0 0.0 0.00 0.00 0.00 85 1020.0
20260902073243 58 113 0.0 0.0 0.00 0.00 0.00 85 1020.0
20260902073143 58 113 0.0 0.0 0.00 0.00 0.00 85 1019.9
20260902073135 58 113 0.0 0.0 0.00 0.00 0.00 86 1019.9
20260902073041 58 113 0.0 0.0 0.00 0.00 0.00 85 1019.9
20260902072939 58 113 0.0 0.0 0.00 0.00 0.00 86 1019.9
20260902072839 58 113 0.0 0.0 0.00 0.00 0.00 86 1019.9
20260902072737 58 113 0.0 0.0 0.00 0.00 0.00 86 1019.9
20260902072632 58 113 0.0 0.0 0.00 0.00 0.00 86 1019.9
20260902072535 58 113 0.0 0.0 0.00 0.00 0.00 86 1019.9
20260902072433 58 113 0.0 0.0 0.00 0.00 0.00 86 1019.9